GFSWCAN_prec_radar_000.txt.gz
Reflectivity
26 26 7 -3 -10 -9 -4 -19 -20 -20 -20 -20 -20 -20 -20 -20 10 -15 -20 -20 -5 5 -20 -20 -20 -20 -20 -20 -20 -20 -18 -17 -4 13 15 -19 6 -2 -20 -20 4 10 18 8 12 11 3 -20 -20 -2 -3 -6 -20 -15
-14 19 21 17 8 -20 -20 -20 -20 -20 -20 -20 -20 -20 -10 -20 -20 7 -17 -20 -20 -14 10 -20 -20 -20 -20 -20 -20 7 3 -20 12 0 9 9 16 12 -8 -11 -1 9 -15 -17 -3 -18 -20 -20 -11 23 -20 22 19 22
-20 -14 5 -2 18 20 -2 -18 -20 -20 -20 -20 -20 -20 -20 -15 -17 -12 -11 -20 -7 11 11 11 -16 -20 -20 -20 -20 18 -20 -19 -20 -18 17 23 10 13 16 6 -3 13 23 -5 -16 -20 -20 2 4 -13 23 10 17 20
-20 -20 -20 -16 5 -20 -20 22 23 1 -19 -20 -20 -20 -20 -20 -0 17 -16 23 -5 21 22 1 -15 -20 -20 -20 -20 -20 -20 11 -17 17 10 -2 8 -1 4 7 9 6 -12 16 23 5 -20 17 4 19 18 18 20 8
-20 -20 -20 -20 -20 -18 -7 6 14 24 10 10 -7 -20 -20 10 18 21 13 11 21 7 5 -1 -12 -20 -20 -20 -20 -20 -20 -17 15 21 22 15 2 12 10 8 13 21 12 18 10 -16 21 -3 11 -20 15 18 17 13
-20 -20 7 -12 -20 -20 -20 -14 11 20 26 21 22 19 4 -1 32 32 26 23 19 22 31 24 3 6 -7 -20 -20 -20 -20 6 14 11 -0 -6 -9 14 33 26 6 -12 -6 2 13 5 7 -19 -20 10 19 17 17 17
-13 -9 -19 11 -5 -19 -20 0 18 16 26 5 25 29 26 12 29 27 26 10 20 11 32 31 25 -5 4 -17 -20 -15 -8 9 10 10 5 8 20 26 14 10 -20 -6 -12 -20 -12 19 -3 -20 7 -6 -7 -20 -20 -20
-20 -20 -20 -3 -20 -8 -14 -10 -5 19 27 12 14 21 28 27 32 30 31 28 26 28 35 30 22 -7 -20 -20 -20 -20 3 -8 -19 -4 -2 -20 -7 6 9 -20 -20 -20 -20 -20 -20 16 4 -18 -20 -20 -20 -20 -20 -20
-19 -20 -8 -14 10 -17 6 -15 -17 -14 -10 -7 14 23 28 25 25 27 33 29 26 32 33 27 -15 -4 -20 -20 -20 -19 5 27 -3 -6 3 12 -16 -14 -20 -20 -20 -20 -20 -20 -20 -20 -12 -20 -20 -20 -20 -20 -20 -20
-19 -19 -19 -20 -14 6 -16 -20 -20 -20 -20 -11 -0 -3 -3 17 7 5 14 27 32 35 37 27 -14 -12 -20 1 29 32 28 10 16 -20 22 5 -4 -20 -20 -20 -19 17 -19 -3 -2 -20 -20 -20 -20 -20 -20 -20 -10 -17
5 11 15 2 6 -10 -20 -20 -20 -20 -20 -20 -11 9 -4 12 3 18 15 13 9 24 27 20 4 10 22 30 13 3 7 -15 6 -2 4 10 -20 -20 -20 5 -4 -17 -16 -20 -20 -20 -20 -20 -20 -20 -20 -20 -14 -3
5 1 -9 -12 -15 -6 -4 -2 -19 -20 -20 -20 -16 -20 -18 -14 2 7 17 20 0 -5 -8 5 4 8 -3 -7 2 -1 9 1 1 -20 -6 -20 -11 2 8 -6 -20 -20 -20 -20 -20 -20 -20 -20 -20 -20 -20 -20 -20 -20
-0 1 -6 6 4 -20 -20 -20 -20 -20 -20 -20 -20 -14 -11 11 11 -19 -18 8 11 5 -4 18 17 10 -3 20 34 21 24 22 16 18 9 11 17 2 -20 -20 -20 -20 -20 -20 -20 -20 -20 -20 -20 -20 -20 -20 -20 -20
9 10 11 -6 -20 -20 -20 -20 -20 -20 -20 -20 -18 -20 -6 -11 -18 2 8 -1 12 23 27 9 2 13 8 -12 -5 1 -19 -19 1 -20 -8 5 -17 -20 -20 -20 -20 -20 -20 -20 -20 -20 -20 -20 -20 -20 -20 -20 -20 -20
12 9 -19 -20 -20 -20 -20 2 -20 -20 -19 1 -1 -18 -19 -20 -20 -20 -20 -11 23 20 1 -13 -13 -20 -13 -16 -11 -20 -9 -8 -7 -17 -20 -20 -20 -20 -20 -20 -20 -20 -20 -20 -20 -20 -20 -20 -20 -20 -20 -20 -20 -20
9 -5 -18 -20 -20 -20 -20 -20 -6 -7 -20 -20 -11 -6 -20 -18 -20 -20 -20 -20 -13 -20 -20 -13 -17 -13 -14 -13 2 -1 -14 -20 -20 -20 -20 -20 -20 -20 -20 -20 -20 -20 -20 -20 -20 -20 -20 2 -18 -20 -20 -20 -20 -20
-15 -20 -20 -20 -20 2 -20 -20 -0 -4 -20 -20 -20 -6 -1 -20 -20 -20 -20 -20 -20 -20 -20 -20 -20 -20 -20 -3 -20 -20 -20 -20 11 -20 -20 -20 -20 -20 -20 -20 -20 -20 -20 -20 -20 -20 8 13 4 -19 -20 -20 -20 -20
-20 -20 -20 -20 -1 11 12 1 -20 -17 -2 -9 -7 -20 -20 -20 -20 -20 -20 -20 -20 -20 -15 1 6 -2 -4 -20 -20 -20 -20 -20 -20 -20 -20 -20 -20 -20 -20 -20 -20 -20 -20 -20 -20 12 -8 -7 -13 -2 -20 -20 -20 -20
-20 -20 -20 -20 3 -17 -13 3 -13 3 -20 -17 -8 -18 -20 -20 -20 -20 -20 -20 -20 -20 -0 14 -4 -12 3 -10 -8 -6 -20 -13 -20 -20 -20 -20 -20 -20 -20 -20 -20 11 18 -14 11 12 11 3 -6 -20 -20 -20 -20 -20
-20 -20 4 9 2 -12 -20 -0 -0 -15 -5 -20 -20 -20 -20 -20 -20 -20 -20 -20 -20 5 13 14 -20 -20 -20 -20 -20 -20 -20 -20 -20 -8 -20 -20 -20 -20 -20 -20 10 20 6 -7 6 13 10 -6 -20 -20 -20 -20 -20 -20
8 -3 17 19 9 -20 -20 5 -3 -4 -20 -20 -20 -20 -20 -20 -20 -20 -20 -20 4 6 10 -20 -20 -20 -20 -20 -20 -20 -20 -20 -20 -20 -20 -20 -20 -20 -20 10 24 24 17 -0 -18 -20 -20 -20 -20 -20 -20 -20 -20 -3
16 1 -4 7 26 14 3 0 -13 -20 -20 -20 -17 -16 1 -15 -20 -20 -20 -4 -5 -19 -20 -20 -20 -20 -20 -20 -20 -20 -20 -20 -20 -20 -20 -20 -20 -20 -1 17 19 11 19 11 -15 -20 -14 -15 -20 -18 -20 -19 -20 -20
5 12 27 32 27 23 21 7 -0 -20 -6 -14 -20 3 -20 -20 -20 -20 -20 -20 -20 -20 -20 -20 -20 -20 -20 -20 -20 -20 -20 -20 -20 -20 -20 -20 -20 -18 9 17 2 12 -7 -20 -20 -20 -20 -20 -15 -6 -20 -20 -0 1
23 25 15 5 -11 -16 -1 -7 8 -16 -6 -20 -20 -20 -20 -20 -20 -20 -20 -20 -20 -20 -20 -20 -20 -20 -20 -20 -20 -20 -9 -9 -20 -20 -20 -11 1 -4 -8 -19 -20 -20 -20 -20 -20 -20 -7 -5 -20 -20 -20 -20 -20 -20
19 18 13 11 13 -20 -20 -8 2 -20 -20 -20 -20 -20 -20 -20 -20 -20 -20 -20 -20 -20 -20 -20 -20 -20 -20 -20 13 20 -20 -9 -20 -20 -19 16 23 5 -20 -20 -20 -20 -20 -20 -20 -20 -6 -4 -20 -19 -19 -6 -2 0
16 6 3 -20 -18 -20 -20 -20 -20 -20 -20 -20 -20 -20 -20 -20 -6 -20 -20 -20 -9 -20 -20 -20 -1 -7 16 -3 -12 -20 -17 26 18 -17 -6 -7 3 16 -11 -20 -20 -20 -20 -9 -20 -6 -20 -20 -20 -15 -20 -20 -20 -18
16 -20 -20 -20 -20 -20 -20 -20 -20 -20 -20 -20 -20 -20 -12 3 -20 -20 -20 -20 -20 -20 -20 -20 -20 -20 -20 -20 -20 -20 -1 22 1 -20 -20 -20 -20 -20 -20 -20 -20 -20 -20 -20 -19 -20 -20 -20 -20 -20 -20 0 2 -13
-19 -8 -20 -20 -20 -20 -20 -20 -20 -20 -20 -20 -20 -11 9 -6 -20 -20 -20 -20 -20 -20 -20 -20 -20 -20 -20 -20 -20 -20 -20 -18 -20 -20 -20 -20 -20 -20 -20 -20 -20 -20 -12 -20 -20 -20 -20 -20 -20 -20 -20 -1 -17 -20
-5 -10 -20 -20 -20 -19 -15 -20 -20 -20 -18 8 7 1 -14 -20 -20 -20 -20 -20 -20 -20 -20 -20 -20 3 -8 -20 -20 -20 -20 -11 21 10 -20 -20 -20 -20 -20 -20 -20 -15 -3 -20 -20 -20 -20 -20 -20 -20 -20 -20 -20 -20
-20 -20 -20 -20 -20 -20 -20 -20 -20 -16 -1 -2 -18 1 -5 -20 -20 -20 -20 -20 -20 -20 -20 -20 -20 -20 -0 -9 -12 -20 -20 -20 -2 -2 4 8 -7 -20 -16 11 -1 -20 -20 -18 -19 -20 -20 -17 -20 -20 -20 -20 -9 -2
-20 -20 4 2 -20 -20 -16 -4 -1 -12 -20 -20 -20 0 -16 -20 -20 -20 -20 -20 -20 -20 -20 -16 -20 -1 -20 -20 -2 -13 -16 -15 -20 2 16 10 16 14 16 7 -17 -20 -20 -20 -20 -20 -20 -20 -20 -20 -20 -20 -20 -20
-17 -5 -4 -4 -17 -19 7 5 -20 -20 -20 -20 -20 -20 -20 -20 -20 -20 -20 -20 -20 -20 -20 -20 -20 -3 -20 -20 -20 -20 -19 -16 -10 7 10 6 -2 -16 -19 -20 -14 -17 -20 -20 -20 -20 -20 -2 -2 -5 -20 -20 -20 -20
-20 -20 -20 -20 -20 -20 -20 -20 -4 -13 -20 -20 -16 -20 -20 -20 -20 -20 -20 -20 -20 -20 -20 -20 -20 -20 -20 -20 -20 -20 -20 -8 -15 -20 -20 -20 -20 -20 -20 -20 -8 -20 -20 -5 -6 -3 -20 -20 -6 -20 -20 -20 -20 -20

GFSWCAN_prec_radar_003.txt.gz
Reflectivity
-1 -13 22 1 -17 -14 -20 -20 -20 -20 -20 -20 -20 -20 -20 -20 -20 -20 -2 -20 9 19 -20 -20 -20 -20 -20 -20 6 16 11 -17 -7 10 2 -20 3 -15 10 -12 -3 12 27 31 9 11 13 -6 -18 26 28 -6 -20 17
-13 1 5 8 25 14 -17 -14 -20 -20 -20 -20 -20 -20 -20 -20 -20 -20 8 -9 -20 -15 -20 -20 -20 -20 -20 -20 6 7 -19 -1 11 13 9 10 -14 9 -18 1 4 5 10 -17 6 5 -20 -20 -5 1 -20 21 -2 28
-20 -9 -6 7 23 -3 -15 -7 -17 -16 -17 -18 -20 -20 -20 -7 19 13 1 5 -7 13 -17 -4 -20 -15 -20 -16 -20 20 15 -20 -15 -14 25 11 7 8 5 -2 3 -11 -16 18 -13 2 -20 -20 -17 3 27 24 11 9
-20 -20 -20 -18 -20 -10 -11 -13 -2 -18 -20 -20 -20 -20 -20 -20 -20 -15 3 17 3 10 14 -3 -14 -20 -20 -20 -20 -20 -7 19 15 19 18 12 23 -3 -1 -1 9 14 14 8 3 -10 -20 -5 18 18 11 17 -11 -20
2 -20 -7 -20 -13 -3 -20 -20 -20 -20 -20 -5 17 -11 -20 -20 -7 -9 -16 -4 12 15 18 -0 -3 -20 -13 -20 -20 -20 -20 -20 20 20 16 10 -19 2 -15 -4 8 3 -11 8 32 15 23 9 -16 -8 10 9 17 13
-15 -8 -20 -20 -20 -20 -9 -20 -20 -20 -20 -3 9 15 22 17 20 26 35 20 18 7 28 29 -16 -20 -20 -20 -12 -20 -20 4 24 4 12 -13 -18 13 11 -0 -16 -15 4 18 25 -5 12 -17 6 8 20 -19 -19 -20
-20 -20 -20 -17 -20 -20 -20 -20 -20 -20 -20 -4 12 25 24 20 29 32 32 16 11 10 35 32 7 -3 -20 -19 11 13 4 25 18 8 7 9 -4 24 8 2 -20 -19 -13 -20 -20 -2 5 -12 19 -20 -20 -20 -20 -20
-20 -20 -20 -20 -20 -20 -20 -20 -20 -19 -11 -7 9 16 17 21 28 28 26 25 17 29 26 37 20 -9 -17 -4 9 -11 -20 -16 15 10 2 -8 -5 11 10 -19 -20 -20 -20 -20 -19 -11 28 -5 -20 -20 -20 -20 -20 -20
-20 -20 -20 2 -20 -20 -19 -9 5 -18 -20 -5 12 15 20 24 25 20 28 27 25 26 33 33 18 11 -15 3 -11 -0 -2 21 -11 17 -2 17 -20 13 -20 -20 -20 -20 -14 13 -2 -16 -2 -14 -20 -20 -20 -20 -20 -20
-4 -20 -20 -20 -20 -20 -8 -16 -20 -20 -20 -17 -10 -9 19 4 17 9 24 35 40 36 31 28 4 18 -11 28 30 23 26 28 26 -14 -19 -19 -20 -20 -20 -20 -20 -20 -20 -15 8 -20 -20 -20 -20 -20 -20 -20 -17 -20
-19 2 -20 -20 -20 -20 -20 -20 -20 -20 -20 -1 -0 13 5 -20 10 7 16 25 21 20 13 1 8 1 4 16 27 20 26 11 18 -20 17 6 1 -4 -11 -20 -20 -16 -7 -20 -20 -20 -20 -20 -20 -20 -20 -20 -18 -20
5 10 1 -18 -20 -20 -20 -20 -20 -9 5 -11 -11 -2 1 13 13 -2 5 8 5 7 7 14 8 4 9 -9 1 18 10 2 -18 -9 -17 -17 -5 -20 -19 -20 -20 -20 -20 -20 -20 -20 -20 -20 -20 -20 -20 -20 -20 -20
-10 -1 -8 -20 -20 -20 -20 -20 -20 -17 -20 -20 -20 10 -1 10 8 -18 -2 10 14 11 1 9 2 -20 -14 -1 22 9 13 22 22 17 17 -16 -5 -17 -20 -20 -20 -20 -20 -20 -20 -20 -20 -20 -20 -20 -20 -20 -18 -20
-20 -20 -19 -20 -20 -16 -20 -20 -20 -20 -20 -19 -19 -20 -18 6 -3 -0 -6 4 16 21 7 2 -17 -20 9 -4 -3 11 13 -11 1 -2 -7 -11 -20 -20 -20 -20 -20 -20 -20 -20 -20 -20 -20 -20 -20 -20 -20 -11 -20 -20
-1 6 10 3 -5 -18 -20 -20 -20 -20 -20 -5 -20 -20 -2 -5 -8 -7 2 -5 7 -6 -12 4 -8 -15 -12 -15 -4 -7 -7 -11 -12 -20 -14 -20 -20 -20 -20 -20 -20 -20 -20 -20 -20 -20 -20 -20 -20 -20 -2 -7 -20 -10
11 12 5 -15 -20 -20 -20 -20 -14 -5 5 -18 -7 -12 5 0 -9 -15 -20 -20 3 -12 -20 -16 -4 -2 -6 3 3 -12 -20 -20 -20 3 1 -20 -20 -20 -20 -20 -20 -20 -20 -20 -20 -20 -20 -20 -20 4 15 -19 -8 -20
-0 -18 -19 -5 -20 -20 -4 -10 -20 -18 -19 -8 -0 -18 10 -18 -15 -14 4 -1 -1 -4 -19 -13 -20 -20 -20 -6 -19 -20 -20 -20 -19 -20 -20 -20 -20 -20 -20 -20 -20 -20 -20 -20 -19 2 -18 -11 14 15 -15 -18 -20 -20
-7 -20 -20 -20 -10 2 4 3 -14 -17 -17 -18 -6 -1 -20 -7 -2 -1 -17 1 -13 -19 -17 6 -7 -14 -17 -20 -20 -20 -7 -1 5 -20 -20 -20 -20 -20 -20 -20 -20 -20 -20 -16 -20 -14 -12 13 14 -5 -20 -20 -20 -20
-7 -20 -20 -4 -1 3 -19 -5 1 1 -12 -18 -20 -20 -20 -5 -1 -13 -20 -9 0 3 18 12 13 -20 -20 -20 -20 -20 -14 -20 5 -20 -20 -20 -20 -20 -20 -20 -20 -11 5 -20 -13 -10 -10 8 9 -15 -20 -20 -20 -20
-20 -20 -20 -4 -11 5 -2 4 -6 1 -1 -6 -20 -20 -5 -16 4 -20 -16 -10 -1 7 5 12 -16 -20 -20 -20 -20 -20 -20 -20 -20 -20 -20 -20 -20 -20 -20 -0 -15 -20 -20 -12 -8 7 11 13 -20 -20 -20 -20 -20 -8
-9 -7 15 15 20 17 5 -18 -4 -13 2 1 -11 2 6 5 5 4 -1 -5 17 5 -0 -20 -20 -20 -20 -20 -20 -20 -20 -20 -20 8 8 3 -20 6 -20 -20 -20 -20 -20 -2 5 3 1 7 -20 -20 -3 1 -4 -20
10 14 -0 14 23 12 4 8 1 12 2 4 2 0 0 9 13 18 2 6 5 -19 -20 -20 -20 -5 -19 -20 -20 3 -20 -20 7 5 -18 -6 -11 3 12 -19 -18 -14 -6 1 9 17 5 -20 -20 -20 -3 -20 -4 -20
9 4 -2 -17 10 13 15 6 10 9 5 8 7 12 8 4 7 -4 -5 -20 -20 -20 -20 -20 -20 -20 -20 -20 -20 -20 -20 -20 -20 -20 -18 -4 -9 -10 -20 -20 -13 3 15 18 10 12 4 -19 -20 -13 5 -4 -17 -12
8 18 16 14 11 22 14 15 8 10 9 14 10 3 -20 2 13 11 -5 -20 -20 -20 -20 -20 -20 -20 -20 -20 -20 -20 -2 8 1 -1 -19 -20 -20 -20 -2 -4 25 18 9 11 -20 -9 -8 -7 -16 -14 -20 -5 -8 -20
23 16 10 16 1 9 -3 3 5 8 6 4 3 -3 0 11 6 -1 -20 -20 -20 -20 -20 -18 -20 -20 -1 13 -20 -20 9 8 5 12 -11 9 9 -12 20 25 16 -19 -20 -7 -2 3 3 3 -2 -12 1 -18 -6 -20
15 8 -7 1 14 3 -2 -20 -8 -8 -3 -9 -6 -3 -2 10 8 -2 -20 -20 -2 -18 -20 -20 1 14 -1 19 1 16 2 -20 -18 -9 20 9 21 24 24 28 -5 -17 -13 -11 -3 -1 1 -7 -8 -20 -4 -16 -6 -4
10 4 3 -19 16 -9 -20 -17 -14 11 -8 -4 -3 13 13 11 -2 -20 -20 -20 -20 -20 -20 -20 -20 21 -3 -20 -20 -13 -20 -16 -6 3 15 -19 -20 -13 2 21 6 -6 -20 -5 -3 -18 -20 -18 0 1 3 6 2 -10
-20 -6 -17 5 -20 -17 4 -19 -0 1 -20 -20 3 8 10 -17 -20 -20 11 -20 -14 -20 -20 -20 -20 -20 -20 -20 -20 -12 -3 -2 -20 -20 -18 -16 -20 -8 -20 -10 -20 -20 -12 -5 -20 -11 5 4 1 2 3 -20 -3 -20
-20 -10 12 -2 18 13 -4 -17 -20 -20 -18 -3 13 6 -20 -16 2 -16 15 -20 -20 -20 -20 -20 -20 -0 -20 -18 -20 -20 -15 -16 1 -20 -18 8 16 -18 -1 -20 -7 -10 -4 -7 -1 1 1 -1 -4 -7 -20 -20 -17 -20
-9 10 7 8 -3 -4 -20 -8 -18 -5 13 14 7 5 4 -20 -20 -20 -20 -20 -20 -5 4 -8 -20 -2 -16 -9 -9 1 -12 -20 -10 4 3 10 15 26 -15 -11 -16 -5 1 9 -16 -20 -20 -20 -20 -20 -20 -20 -19 -7
8 2 6 9 6 -15 -9 8 -6 -18 -20 -20 -20 3 7 13 4 -20 -20 -20 -20 -20 -9 -9 -4 -12 -18 -20 -12 4 -15 0 -15 -12 -14 1 3 23 18 6 8 14 16 6 -19 -19 -17 -6 -3 -18 -20 -13 -5 -4
-1 10 16 17 -0 13 -20 -20 -3 1 5 5 -3 6 -17 -9 -18 -6 -8 -5 -5 -6 -2 -7 -20 0 4 4 5 4 -19 1 -0 3 3 6 7 6 14 14 10 8 4 1 -4 -1 -4 -1 -1 0 -2 -3 -3 -2
20 21 22 19 21 11 -1 -13 3 -13 -20 -4 -6 -2 -15 -2 9 -19 -4 -2 -5 -5 -4 -5 -4 1 -3 -16 -0 -3 -20 -20 -17 -20 -20 -20 -20 -10 7 6 2 -16 -8 -15 4 3 -5 -17 -1 3 -2 -8 -5 -4

GFSWCAN_prec_radar_006.txt.gz
Reflectivity
-9 -2 -4 -20 -19 -20 -20 -20 -20 -20 -20 -20 -20 -20 -20 -20 -20 -5 -15 10 -10 16 -20 -20 -20 -20 -20 -2 -16 -7 11 -20 -5 10 11 -15 -20 -7 -4 -20 5 9 12 12 0 -2 9 2 -17 20 18 27 10 -20
17 0 12 -14 13 -20 -20 -20 -20 -20 -20 -20 -20 -20 -20 -20 -20 -10 -5 19 21 -13 -17 -20 -20 -20 -20 -20 20 22 -2 17 13 -9 2 -2 -15 9 -20 -12 -20 -20 -20 -19 -17 -0 -20 -20 -20 -6 14 18 -18 19
-1 -8 10 -17 9 13 -20 -20 -20 -20 -20 -20 -20 -20 -20 -20 -20 -18 -17 16 -13 14 -18 -11 -20 -20 -20 -20 -20 23 -15 -19 -20 -13 23 7 17 1 -8 -5 -14 11 -20 -13 3 -20 -20 -20 -20 -11 3 12 12 28
-20 -20 -13 -4 -13 12 12 -20 -20 -20 -20 -20 -20 -20 -20 -20 -20 -20 3 4 15 9 16 -3 -20 -20 -20 -20 -14 -6 -2 10 19 19 22 14 -11 -15 -13 -14 5 -16 -7 -5 -8 -20 -20 -18 2 7 8 12 32 -4
-20 -20 -20 -20 -18 -19 -20 -20 -20 -18 -2 -7 -17 -18 -16 -20 6 21 26 9 5 17 10 -14 -18 -20 -20 -20 -20 17 -6 -20 -13 18 16 -6 -19 -3 -20 -13 7 12 -19 5 -20 -20 19 -20 -20 9 10 39 0 13
-1 -8 -20 -10 -2 -6 -20 -20 -20 -20 4 -19 -20 7 -1 25 30 28 26 -2 -8 13 30 23 5 0 -20 -20 -20 -19 -20 -1 22 24 17 -11 -1 -17 6 1 -20 -20 -20 11 14 -19 -20 13 15 3 -1 -19 23 14
-20 -17 -7 -20 -20 -19 -20 -18 5 12 8 3 -20 -20 -20 12 32 32 24 13 7 15 32 36 27 -11 -20 -20 -20 -20 -4 1 13 15 9 -11 -7 24 24 13 -20 -20 -20 -20 -20 15 26 -13 7 -14 -6 -0 11 9
-20 -20 -20 -20 -17 -1 -20 -20 -8 -7 -20 -13 -18 -6 19 27 31 30 29 33 29 22 22 30 12 5 -14 -18 -6 -16 -4 -16 17 25 14 18 17 15 15 -6 -20 -20 -20 -20 15 -1 -5 1 -17 -11 -13 16 13 -13
-20 -20 -20 -20 -19 -17 3 -9 -20 -20 -20 -20 9 11 8 11 26 12 28 27 29 24 33 24 18 15 -11 -4 -3 -1 18 27 24 20 -4 -8 -16 2 -13 -20 -20 -20 -20 -20 -20 -18 10 -17 -19 -20 -19 -20 -20 -20
-20 -20 -20 -20 -20 -20 -20 -20 -18 -13 -9 -19 -5 0 9 20 33 22 11 27 26 31 23 21 16 9 -2 3 3 1 5 12 14 -20 -19 -8 -18 -20 -20 -20 -20 -20 -20 -15 -20 -20 -11 -20 -20 -20 -20 -20 -20 -20
-18 -12 -19 -20 -20 -20 -20 -20 -17 -6 -20 -20 -10 6 4 2 -11 21 34 29 27 17 16 -4 -4 -11 1 18 25 21 31 26 10 -20 18 3 -19 -20 -20 -20 -7 -20 -20 -20 -20 -20 -20 -20 -20 -20 -20 -20 -20 -20
-18 1 -20 -20 -20 -20 -20 -20 -20 -9 -3 -1 -7 -6 -20 5 3 4 12 12 14 -7 9 0 7 -9 19 10 15 9 -6 3 -20 -12 -20 -20 -20 -20 -20 -20 -20 -20 -20 -20 -20 -20 -20 -20 -20 -20 -20 -20 -20 -20
-9 -17 -6 -20 -20 -20 -20 -20 -20 -20 -20 -2 -20 1 -7 10 6 1 1 11 -16 -2 22 6 11 -20 -20 -15 0 8 10 4 -19 13 -2 -14 -19 -13 -20 -20 -20 -20 -20 -20 -20 -20 -20 -20 -20 -20 -20 -20 -20 -20
-7 10 10 -4 -2 -18 -20 -20 -19 -20 -1 -17 4 -20 -20 -18 -5 3 3 -20 5 -3 -17 3 -1 11 -4 -11 -18 -5 -18 15 14 -3 -20 -10 -20 -17 -20 -20 -20 -20 -20 -20 -20 -20 -20 -20 -20 -20 -20 -20 -20 -16
-13 3 9 7 -9 -20 -3 5 -10 -20 -20 -15 -10 -20 -12 -10 -5 -18 -19 0 4 -20 -9 -11 -16 -20 -4 -17 -20 -11 -10 -12 -20 -20 -12 -12 -2 -20 -20 -20 -20 -20 -20 -20 -20 -20 -20 -20 -20 -20 -20 -20 -6 9
5 12 7 -2 2 -10 -15 -19 -12 -20 -20 -20 -14 -14 -14 -5 -3 -10 -20 -5 4 -7 -16 -17 -14 -14 -5 -12 -1 -15 -20 -20 -20 12 -5 -20 -20 -20 -20 -20 -20 -20 -20 -20 -20 -20 -20 -20 -3 -20 -20 -16 6 -3
2 -20 -5 13 17 9 6 -9 -0 5 -20 -20 -7 -16 14 -12 1 -20 -20 -5 8 -20 -20 -6 -20 -20 -20 -19 -20 -20 -20 -20 9 -20 -20 -20 -20 -20 -20 -20 -20 -20 -20 -20 -20 -20 -20 -20 -20 -13 -20 8 -13 -20
-12 -20 -20 -20 -20 -9 1 9 -20 -14 -17 -20 -12 -2 -20 -20 -14 -18 -20 -12 6 -0 -20 -9 -17 -20 -20 -20 -20 -20 -20 -20 -20 -20 -20 -20 -20 -20 -20 -20 -20 -20 -20 -20 -20 -20 -20 -20 -19 -12 3 -6 -20 -20
4 -20 -20 -20 -8 -6 -19 -20 -2 -8 -12 -18 -20 -20 -8 7 -9 -19 -4 -15 1 -3 8 -7 10 -20 -17 -20 -20 -20 -20 -20 -20 -20 -20 -20 -20 -20 -20 -20 -20 -20 -20 -20 -5 -20 -20 -10 -2 1 -16 -20 -20 -20
-19 -20 -20 -20 -13 -15 -5 3 -12 0 3 5 -20 -11 -1 -5 -20 0 -20 -19 3 16 11 6 -20 -20 -20 -20 -20 -20 -20 -20 -20 -20 -20 -20 -20 -20 -20 -20 -20 -20 -20 6 -20 -5 -0 -6 -13 -7 -20 1 -12 -8
5 -9 13 14 16 16 16 -16 -10 -20 -6 -6 -12 4 7 14 -3 -4 -8 3 8 4 -20 -20 -20 -20 -20 -20 -20 -20 -20 -20 -3 15 -4 -20 -20 -20 -20 -20 -20 -20 -19 -13 -20 -10 2 -10 -2 -20 -11 -20 -20 -20
17 -9 11 14 21 -20 -8 9 -9 5 -14 -7 -4 -3 -0 -16 -6 1 -19 10 3 -19 -20 -20 -20 -20 -20 -20 -20 -18 -5 -14 -20 -20 -20 -20 -13 -20 -19 -18 8 13 4 -11 0 -0 22 3 33 19 -20 -20 -20 -20
-0 -9 -9 -12 -17 -6 1 -2 12 2 9 6 -13 0 4 -10 -16 -20 9 -11 -20 -20 -20 -20 -20 -20 -20 -20 -20 -20 -20 -20 -20 -20 -20 15 6 3 -1 -15 -20 -13 -6 -17 14 21 25 24 -20 -20 -17 -20 -20 -13
-12 -5 -6 -13 -18 7 -10 5 11 11 8 6 8 -19 -20 -14 -4 14 3 -20 -20 -20 -20 -20 -20 -20 -20 -20 -20 -20 -20 6 -11 -20 -20 8 4 -3 -4 -13 -7 6 -5 5 18 20 25 -1 -20 -20 3 -6 -20 -11
23 15 -1 9 10 14 7 12 4 5 -1 1 5 6 -13 14 -10 -7 -11 -20 -20 -20 -19 -20 -20 -20 -20 -20 -20 -18 -20 24 14 -20 -20 -6 17 15 -13 -17 -15 -5 15 21 30 7 -17 -20 -19 -13 -20 -20 -20 -13
16 6 -9 3 8 -6 4 -11 -5 -5 -9 3 7 1 11 8 9 3 -20 -20 2 -3 -20 -20 -20 -10 -20 -20 -20 -20 15 -9 -20 -4 -20 -20 -3 -2 6 3 1 14 2 -20 -20 -20 -6 -16 -5 -20 -7 -7 8 -12
15 11 1 -20 7 -8 -7 7 1 16 1 5 -13 9 14 17 -20 -20 -20 -20 9 11 -13 4 18 -4 -11 -20 -7 18 -20 -20 -20 -20 -20 -20 -20 -12 4 7 -4 10 17 -20 -20 -20 -20 -16 -14 -20 -20 -8 -18 -6
-19 -7 -14 10 6 2 12 10 14 11 1 -3 9 10 16 2 -20 -20 12 -20 12 -20 -20 -20 -20 -20 -20 -20 -20 -20 -20 -20 -16 -20 -20 -20 -20 -18 -19 -20 -20 -18 4 -17 -20 -20 -20 -1 -20 -20 -5 -19 4 -18
-20 -17 2 -20 13 15 -3 -3 8 -20 -20 6 11 -5 -2 -13 -18 -17 -19 11 -20 -20 -20 -20 -20 -18 -18 -20 -20 -20 -14 -10 -2 -20 -19 -20 -19 -16 -2 -10 -19 -20 -20 -20 -20 -20 -16 -11 -18 -20 -3 -1 -20 -20
-20 4 -20 -20 -17 -20 -20 -2 -20 -4 8 19 13 10 -7 -20 -20 -13 -14 -11 -20 -20 -20 -15 -20 -20 -20 -15 -11 -20 -14 -14 -11 -2 0 2 3 -14 -17 16 26 20 14 3 -3 -13 17 12 -8 -20 -20 -20 -19 -10
9 17 -2 13 -0 -20 -20 -20 -4 -19 -20 -10 -10 16 -14 -20 -20 -20 -20 -20 -18 -20 -20 -7 -8 -1 2 -6 0 -6 2 2 -16 -20 -10 -1 -9 2 -2 7 8 8 14 12 -3 9 16 16 15 10 -1 -20 -4 -20
14 -6 -8 -15 -19 -18 -14 -14 15 15 7 8 -1 -4 -6 12 10 -16 -20 -20 -9 -4 -18 -20 -20 0 -2 -19 6 4 -19 -20 -20 -20 -20 -18 1 5 6 3 5 2 6 9 11 10 7 3 -3 -19 -20 -20 -20 -14
17 19 -14 18 -14 -16 7 10 19 -7 -20 9 4 4 8 12 9 -19 -3 -14 -20 -20 -20 -20 -20 -2 6 -5 3 6 -4 -18 -20 -20 -20 -20 -19 -20 -20 -4 6 6 -5 1 -2 -7 -16 -20 -15 4 -4 -6 -20 -20

GFSWCAN_prec_radar_009.txt.gz
Reflectivity
22 5 -4 -20 -20 -20 -20 -20 -20 -20 -20 -20 -20 -20 -20 -20 -20 -20 -20 -20 -20 2 -20 -20 -20 -20 -20 -20 -20 -20 -16 -20 -20 -20 -20 -20 -20 -20 -20 -20 -20 -20 -20 -12 -20 -4 -17 -20 -20 -20 -7 -20 -13 -20
22 22 17 -20 -20 -2 -20 -20 -20 -20 -20 -20 -20 -20 -20 -20 -20 -3 -20 -20 -20 -20 -20 -20 -20 -20 -20 -20 11 -20 -20 -20 -20 -19 -20 -20 -20 -11 -20 -10 -20 -20 -20 -20 -20 -20 -20 -20 -20 -20 -20 3 -20 19
22 19 10 -0 -1 -19 5 -6 -19 -20 -20 -18 -20 -20 -20 -20 -20 -20 -20 -20 -20 7 -20 -20 -20 -16 -13 -1 4 16 -20 -18 -14 -20 -15 5 29 19 7 12 -19 -1 9 -17 -15 -20 -20 -20 -20 -20 -20 7 1 2
9 26 21 15 10 17 -14 2 -8 -5 -19 -20 -20 -20 -20 -20 -20 -19 -20 -20 -20 -13 9 3 -20 -15 -2 -12 -20 -20 -20 -20 0 24 25 26 20 4 16 -7 -17 14 20 -19 -20 -20 -20 -20 -18 12 -15 4 16 9
-10 -6 4 7 25 -1 -20 -15 -10 11 -12 -20 -20 -20 -20 -20 -20 -20 -20 -20 -20 16 -6 11 -3 -10 4 10 -6 -19 -17 -1 19 19 19 7 -20 -14 -20 -20 -7 -15 -20 2 -18 -20 12 -1 -17 -11 18 10 -4 -12
-3 -8 -20 -20 -3 5 0 -19 -3 -20 7 -20 -20 -20 -8 -20 -20 -17 -1 -14 -20 -7 22 30 -1 -20 -20 -17 -15 -20 -19 -7 11 9 9 -14 -20 1 -20 1 -6 -20 -20 -14 -6 14 5 -19 -17 29 24 -19 -10 7
-20 -15 -20 -20 -20 -16 6 -0 -10 -8 -12 -17 14 18 21 22 26 30 22 7 -8 24 26 17 3 -2 -20 -20 -20 -20 -20 -11 5 -16 1 -20 8 17 30 26 -20 -20 -20 -20 -20 -2 15 14 2 -10 -7 12 -2 -20
-20 -20 -11 -5 -20 -20 -20 -7 2 -14 9 6 9 11 23 25 32 28 21 13 16 20 26 31 20 2 -17 -20 -20 -20 -20 -17 -20 -20 -20 -13 3 11 28 11 -20 -20 -20 -20 -9 15 22 11 7 -13 -13 1 14 -12
-20 -20 -16 -20 -20 -20 -20 -20 -9 -20 -20 -15 6 8 9 9 16 23 26 21 21 18 35 25 -2 -16 1 -20 -14 4 -1 3 -5 -11 -20 -1 -10 16 -7 -20 -20 -20 -20 -20 -18 -20 -20 -10 -15 9 -6 -17 -20 -20
-20 -20 -20 -20 -20 -20 -20 -20 -20 -8 9 14 8 -5 4 11 21 19 28 21 21 38 34 3 10 10 -20 -13 17 12 25 19 -5 -20 -20 -2 0 -20 -20 -20 -20 -20 -20 -20 -19 7 22 6 -20 -20 -20 -20 -20 -20
-20 -20 -20 -20 -20 -20 -20 -20 -17 -20 12 -5 -2 8 8 13 12 10 4 18 20 15 1 -6 -3 -12 -3 14 28 29 24 17 -1 -20 -14 -20 -20 -20 -20 -20 -20 -6 -14 18 1 1 10 -13 -20 -20 -20 -20 -20 -20
-20 -17 -20 -20 -20 -20 -20 -5 19 7 -18 -20 -20 3 -3 3 -12 -17 -4 -2 2 -19 -9 -20 -20 -5 16 25 23 25 -11 8 -20 -20 -20 -20 -20 -20 -20 -20 7 -18 -20 -17 5 -14 -20 -20 -20 -20 -20 -20 -20 -20
3 11 1 -20 -20 -20 -20 -18 9 13 6 -17 -19 -20 -20 7 -16 -20 -20 -13 -20 -18 17 6 2 -19 -4 -8 13 -18 -2 -17 -20 -20 -20 -20 -20 -20 -20 -14 -20 -20 -20 -20 -20 -20 -20 -20 -20 -20 -20 -20 -20 -20
-20 -10 -20 -8 -20 -20 -20 -20 -19 -20 -20 -20 -20 -20 -20 -20 -20 -15 -20 -20 -11 -5 -20 -6 6 -20 -20 -20 -20 -20 -20 -20 9 -20 -20 -20 -20 -20 -20 -13 14 9 1 -20 -20 -20 -20 -20 -20 -20 -20 -20 -20 -20
9 7 -1 -5 -2 -20 -20 -19 -5 -20 -20 -20 -20 -20 -20 -16 -20 -20 -20 -20 -10 -8 -16 -20 -20 -20 -20 -20 -20 -20 -20 -18 -20 -20 -20 -20 -20 -20 -20 -20 -20 -20 -20 -20 -20 -20 -20 -20 -20 -20 -20 -20 -20 -20
-2 13 -2 -17 -12 11 -6 -20 -11 -20 -20 -20 -20 -20 -20 -20 -20 -20 -20 -20 -20 -20 -20 -20 -20 -20 -20 -20 -20 -20 -20 -20 -20 -20 -20 -20 -20 -20 -20 -20 -20 -20 -20 -20 -20 -20 -20 -20 -20 -20 -20 -20 -15 -20
-10 -20 -19 -20 -18 -11 11 11 -16 -20 -20 -20 -20 -20 -20 -20 -20 -20 -20 -20 -20 -20 -20 -20 -20 -20 -20 -20 -20 -20 -20 -20 -20 -20 -20 -20 -20 -20 -20 -20 -20 -20 -20 -20 -20 -20 -20 -20 -20 -20 -20 -20 -3 -19
-20 -11 -16 7 -2 10 19 4 -19 -20 -20 -20 -20 -20 -20 -20 -20 -20 -20 -20 -20 -20 -20 -20 -20 -20 -20 -20 -20 -20 -20 -20 -20 -20 -20 -20 -20 -20 -20 -20 -20 -20 -20 -20 -20 -20 -20 -20 -20 -20 -10 4 -20 -20
-9 -19 1 -12 6 -7 -7 -13 -13 -18 -20 -20 -20 -20 -20 -20 -20 -20 -20 -20 -20 -20 -20 -20 -20 -20 -20 -20 -20 -20 -20 -20 -20 -20 -20 -20 -20 -20 -20 -20 -20 -20 -20 -20 -20 -20 -20 13 -20 -20 -3 -3 -16 -14
-20 -20 -11 6 -13 -20 -20 -20 -20 -20 -2 -20 -20 -20 -20 -20 -20 -20 -20 -20 -20 -20 -12 -2 -20 -20 -20 -20 -20 -20 -20 -20 -20 -20 -20 -20 -20 -20 -20 -20 -20 -20 -20 -20 -20 -20 -1 -19 -19 -19 3 10 -1 -19
-20 4 -14 -12 1 -20 -20 -20 -12 -20 -20 -20 -20 -20 -20 -20 -20 -20 -20 -20 -20 -19 -20 -20 -20 -20 -20 -20 -20 -20 -20 -20 -20 10 9 -20 -20 -20 -20 -20 -20 -20 -20 -15 -3 -20 -20 -16 -15 -14 12 13 21 -7
-20 -20 24 25 12 -20 -20 -20 -20 -20 -20 -20 -20 -20 -20 -20 -20 -20 -20 -16 -17 -20 -20 -20 -20 -20 -20 -20 -20 -20 -19 5 -17 -20 -20 -20 -20 -20 -20 -20 5 -1 -8 -15 -20 -7 3 -11 16 17 -4 -19 -20 -20
-12 -20 -20 -20 -20 -20 -20 -20 -20 -20 -20 -20 -20 -20 -20 -20 -20 -20 -20 -20 -20 -20 -20 -20 -20 -20 -20 -20 -20 -20 -20 -20 -20 -20 -20 -11 -2 -20 0 -20 0 -1 -19 -20 4 13 5 17 12 13 -8 -20 -20 -20
-20 -20 -20 -20 -20 -20 -20 0 -13 -20 -20 -20 -20 -20 -20 -20 -20 -20 -20 -20 -20 -20 -20 -20 -20 -20 -20 -20 -20 -20 -20 -15 -20 -20 -20 -1 -18 -20 -20 -20 -20 -19 -9 -8 3 9 5 -1 8 -5 -19 -20 -20 -20
5 -20 -20 -20 -20 -19 -17 0 -3 -20 -20 -20 -20 -20 -20 -20 -20 -20 -20 -20 -20 -20 -20 -20 -20 -20 -20 -20 -20 -20 -20 -20 -20 -20 -20 -20 -20 -20 -20 -19 -2 -1 -20 -7 -1 21 8 9 2 -20 -20 -20 -20 -20
3 -19 -20 -20 -15 -1 -20 -20 -20 -20 -20 -20 -20 -20 -20 -20 -20 -20 -20 -20 -20 -20 -20 -20 -20 -20 -20 -20 -20 -20 -20 -20 -20 -20 -20 -20 -16 -6 -20 -20 -20 -20 -20 22 15 -20 -20 -20 -20 -20 -20 -20 -17 -8
11 -14 -20 -20 -20 -20 -20 -20 -20 -20 -20 -20 -20 -20 -20 -19 -20 -20 -20 -20 -20 -20 -20 -20 -20 -20 -20 -20 -20 -7 -20 -20 -20 -20 -20 -20 -15 -16 -20 -17 -19 -14 -20 1 13 -20 -20 -20 -20 -20 -20 -20 -20 -20
-20 -20 -15 -20 -20 -20 -20 -20 -20 -20 -20 -20 -20 -16 -17 -20 -20 -20 -20 -20 -20 -20 -20 -20 -20 -20 -20 -20 -20 -20 -20 -20 -13 -20 -20 -20 -20 -20 -20 -17 2 15 -16 -7 1 -19 -20 -20 -20 -20 -20 -20 -20 -12
-20 -20 -20 -20 -20 -20 -20 -20 -20 -20 -20 -16 -4 -20 -20 -20 -20 -20 -20 -20 -20 -20 -20 -20 -20 -20 -20 -20 -20 -20 -20 -20 -11 -20 -20 -20 -20 -20 -20 -20 -19 -20 -19 -18 0 -6 -13 5 -10 -19 -18 -20 -20 -20
-20 -20 -20 -20 -20 -20 -20 -20 -20 -20 10 3 -1 -16 -20 -20 -20 -20 -20 -20 -20 -20 -20 -20 -20 -20 -20 -20 -20 -20 -20 -14 -6 -14 -19 -20 -20 -20 -20 -8 -20 -8 8 -18 -9 -20 -16 -1 14 14 16 11 6 -4
-20 -20 -20 -20 -20 -20 -20 -20 -20 -20 -20 -20 -20 -11 -20 -20 -20 -20 -20 -20 -20 -20 -20 -20 -20 -20 -18 -18 -18 -20 -20 -7 -20 -20 -20 -20 -17 -8 -20 -7 -20 -20 -20 -20 -20 -20 -9 8 12 15 14 12 8 3
-5 -20 10 8 -7 -20 -18 3 -20 -8 -20 -12 -20 -20 -20 -7 -8 -3 -18 -20 -20 -20 -20 -20 -20 -20 -20 -20 -20 -20 -20 -20 -20 -20 -20 -20 -20 -20 -19 -18 -20 -20 -20 -20 -20 -20 -20 -9 -1 -12 -17 -14 -19 -20
-20 0 12 10 7 -18 -20 -14 -17 -19 -20 -20 -20 -20 -20 -8 16 1 -20 -20 -20 -20 -20 -20 -20 -20 -20 -20 -17 -20 -20 -20 -20 -20 -20 -20 -20 -20 -20 -20 -20 -20 -20 -20 -20 -20 -20 -20 -20 -7 -14 -11 -18 -20

GFSWCAN_prec_radar_012.txt.gz
Reflectivity
24 12 8 -11 -9 -20 -20 -20 -20 -20 -20 -20 -20 -20 -20 -20 -20 -20 -20 -20 -20 -7 -20 -20 -20 -20 -20 -20 -20 -20 -16 -20 -11 -20 -20 -20 -20 -20 -20 -20 -20 -20 -20 -20 -20 -16 -20 -20 8 10 -16 -20 -20 -20
23 23 4 14 -8 -20 7 -20 -20 -20 -20 -20 -20 -20 -20 -20 -20 -20 -20 -20 -20 -20 -20 -20 -20 -20 -20 -20 -20 -20 -20 -20 -20 -20 -20 -20 -20 -20 -20 -20 -20 -20 -20 -20 -20 -20 -20 -5 8 -20 -20 -20 -20 -20
26 15 5 -2 -3 -20 7 1 9 -16 -20 -20 -20 -20 -20 -20 -20 -20 -20 -20 -20 8 -20 -20 -20 -20 -20 -20 -20 -15 -20 -1 8 -20 -20 -18 -18 -17 -15 5 18 25 -19 -20 -16 -20 -20 -20 -20 -20 -20 -20 -20 3
32 28 23 12 2 -4 6 10 4 -0 8 -10 -20 -20 -20 -20 -20 -20 -20 -20 -20 -10 9 -20 -20 -20 -6 -20 -20 -20 -20 -12 3 -12 10 22 28 23 21 5 -9 -1 8 -0 -20 -20 -19 -20 -14 -15 21 -14 -20 -17
21 22 27 24 25 24 8 -4 -20 -20 2 9 -10 -20 -20 -20 -20 -13 -20 -20 -20 -12 -13 -20 -20 -20 -11 6 8 -3 -20 9 17 7 12 9 -8 9 -1 -19 3 -1 -16 -13 -20 -16 13 -1 -4 16 -4 -14 19 20
14 2 16 16 12 16 24 26 2 5 11 9 3 -20 -20 -20 -20 -20 -20 -20 -20 -20 19 -7 -20 -20 -20 -20 -20 -20 -20 -20 -1 -10 -8 -20 -20 -13 11 23 -11 -14 -20 -20 21 28 10 11 -9 -20 -7 19 16 12
-20 -4 4 -18 -10 -9 6 19 16 12 -20 -6 -5 -18 -14 -14 -7 -20 1 -15 -19 8 18 24 1 -20 -20 -20 -20 -20 -16 -20 -20 -17 -8 0 -0 20 25 7 -20 -20 -20 -9 24 13 7 -12 -17 17 26 17 -4 -18
-20 -6 -14 -20 -20 -20 -20 -7 -15 -15 -20 -3 13 21 21 29 28 22 23 18 20 18 22 31 22 -7 1 -7 -20 -20 -20 -6 -20 -20 -20 -18 -2 14 10 -20 -20 -20 -0 8 26 -8 -20 5 7 17 12 -2 0 -16
-20 -10 -20 -20 -20 -20 -20 -0 7 11 13 12 16 27 25 19 19 18 22 8 24 19 32 21 19 2 6 -4 -3 -7 -20 -20 -20 -20 -20 -20 -20 -15 -20 -20 -20 -20 -20 -16 -15 -15 -9 13 -5 19 16 6 -17 -20
-20 -20 -20 -20 -20 -20 -20 7 5 4 11 16 2 -15 4 6 21 22 35 36 34 35 25 9 2 -5 -11 6 -1 7 24 26 3 -20 -20 -18 -20 -20 -20 -20 -20 -20 -20 -20 -20 -20 18 29 18 -10 -20 -20 -20 -20
-20 -20 -20 -20 -20 -20 -20 -19 -10 5 3 -10 -11 -4 8 20 5 11 23 9 9 2 6 -11 -19 -20 -2 -9 15 18 16 13 -17 -20 -18 -20 -20 -20 -20 -20 -20 -20 -20 -20 -3 -3 -4 -20 -20 -20 -20 -20 -20 -20
-20 -20 -20 -20 -20 -20 -20 -18 5 -2 -4 4 0 15 -8 -8 -6 -7 -3 -9 -18 -20 -15 -20 -18 -5 14 14 22 23 -14 0 -19 -20 -19 -20 -20 -20 -20 -20 -20 6 12 -20 -20 -17 -7 14 10 -16 -20 -20 -20 -20
-20 -20 -20 -20 -20 -20 -15 3 -17 -20 -18 -19 -16 -15 -17 -9 -20 -20 -20 -20 -20 -20 3 -12 -16 -2 1 -13 16 -16 -20 -20 -20 -20 -20 -20 -20 -20 12 14 -12 -5 -9 -12 8 18 13 -2 -19 -20 -20 -20 -20 -20
3 12 3 -20 -20 -20 -20 2 -11 -20 -20 -20 -20 -20 -20 -20 -20 -20 -20 -20 -18 -18 7 19 9 -20 -20 -20 -20 -20 -20 -20 -1 -17 -20 -20 -20 -20 -3 -2 -20 -20 -20 -20 -20 -20 -20 -20 -20 -20 -20 -20 -20 -20
3 -3 -4 -20 -20 -20 -20 -20 -20 -20 -20 -20 -20 -20 -20 -20 -20 -20 7 -14 1 -5 -20 -20 -20 -20 -20 -20 -20 -20 -20 -20 -20 -20 -20 -20 -20 -20 -20 -20 -20 -20 -20 -20 -20 -20 -20 -20 -20 -20 -20 -20 -20 -20
5 10 3 5 -16 -2 -4 -1 -20 -20 -20 -20 -20 -20 -20 -20 -20 -8 -20 -20 -20 -20 -20 -20 -20 -20 -20 -20 -20 -20 -20 -20 -20 -20 -20 -20 -20 -20 -20 -20 -20 -20 -20 -20 -20 -20 -20 -20 -20 -20 -20 -20 -20 -20
-10 9 22 29 20 -17 -12 -20 -20 -20 -20 -20 -20 -20 -20 -20 -20 -20 -20 -20 -20 -20 -20 -20 -20 -20 -20 -20 -20 -20 -20 -20 -20 -20 -20 -20 -20 -20 -20 -20 -20 -20 -20 -20 -20 -20 -20 -20 -20 -20 -20 -8 -20 -20
-3 13 6 -6 -17 -5 -11 -20 -20 -20 -20 -20 -20 -20 -20 -20 -20 -20 -20 -20 -16 -20 -20 -20 -20 -20 -20 -20 -20 -20 -20 -20 -20 -20 -20 -20 -20 -20 -20 -20 -20 -20 -20 -20 -20 -20 -20 -20 -20 -20 -14 -20 -16 -20
-18 -8 -1 -15 -17 -20 -13 -12 -20 -20 -20 -20 -20 -20 -20 -20 -20 -20 -20 -20 -20 -20 -20 -20 -20 -20 -20 -20 -20 -20 -20 -20 -20 -20 -20 -20 -20 -20 -20 -20 -20 -20 -20 -20 -20 -20 -20 -20 -12 -20 -15 -0 -17 -8
10 8 4 9 -20 -20 -20 -20 -20 -20 -20 -20 -20 -20 -20 -20 -20 -20 -20 -20 -20 -20 -20 -14 -20 -20 -20 -20 -20 -20 -20 -20 -20 -20 -20 -20 -20 -20 -20 -20 -20 -20 -20 -20 -20 -20 -20 -20 -20 -20 -9 -3 -6 6
10 25 22 -20 -20 -20 -20 -20 -20 -20 -20 -20 -20 -20 -20 -20 -20 -20 -20 -20 -20 -19 -20 -20 -20 -20 -20 -20 -20 -20 -20 -20 -20 -20 -20 -20 -20 -20 -20 -20 -20 -20 -20 -20 -20 -20 -20 -20 -19 -2 -9 -17 5 14
17 8 5 -20 -20 -20 -20 -20 -20 -20 -20 -20 -20 -20 -20 -20 -20 -20 -20 -20 -20 -20 -20 -20 -20 -20 -20 -20 -20 -20 -20 -20 -20 -20 -20 -20 -20 -20 -20 -20 -20 -20 -20 -20 -20 -20 -19 -8 12 3 -1 -16 -4 4
-13 -20 -20 -20 -20 -20 -20 -20 -20 -20 -20 -20 -20 -20 -20 -20 -20 -20 -20 -20 -20 -20 -20 -20 -20 -20 -20 -20 -20 -20 -20 -20 -20 -20 -20 -20 -20 -20 -20 -20 -20 -20 -20 -20 -20 -20 -5 14 7 12 -11 -20 -20 -20
-20 -20 -20 -20 -20 -20 -20 -20 -20 -20 -20 -20 -20 -20 -20 -20 -20 -20 -20 -20 -20 -20 -20 -20 -20 -20 -20 -20 -20 -20 -20 -20 -20 -20 -20 -20 -20 -20 -20 -20 -20 -20 -20 -19 -19 -4 -1 5 8 -15 -16 -20 -20 -20
-20 -20 -20 -20 -20 -20 -20 -20 -20 -20 -20 -20 -20 -20 -20 -20 -20 -20 -20 -20 -20 -20 -20 -20 -20 -20 -20 -20 -20 -20 -20 -20 -20 -20 -20 -20 -20 -20 -20 -20 -20 -20 -20 -20 -20 -10 -11 9 7 5 -6 -20 -20 -20
-20 -20 -20 -20 -20 -20 -20 -20 -20 -20 -20 -20 -20 -20 -20 -20 -20 -20 -20 -20 -20 -20 -20 -20 -20 -20 -20 -20 -20 -20 -20 -20 -20 -20 -20 -20 -20 -20 -20 -20 -20 -20 -20 -17 -17 -20 -8 -20 -20 -20 -20 -20 -20 -20
-20 -20 -20 -20 -20 -20 -20 -20 -20 -20 -20 -20 -20 -20 -20 -20 -20 -20 -20 -20 -20 -20 -20 -20 -20 -20 -20 -20 -20 -20 -20 -20 -20 -20 -20 -20 -20 -20 -20 -20 -7 -20 -20 -16 -17 -20 -19 -12 -19 -20 -20 -17 -16 -20
-20 -20 -20 -20 -20 -20 -20 -20 -20 -20 -20 -20 -20 -20 -20 -20 -20 -20 -20 -20 -20 -20 -20 -20 -20 -20 -20 -20 -20 -20 -20 -20 -19 -20 -20 -20 -20 -20 -20 -20 -20 -20 -20 -20 -17 -19 -20 -14 -16 -20 -15 -19 -20 -20
-20 -20 -20 -20 -17 5 10 -12 -20 -20 -20 -20 -20 -20 -20 -20 -20 -20 -20 -20 -20 -20 -20 -20 -20 -20 -20 -20 -20 -20 -20 -20 -20 -20 -20 -18 -20 -20 -20 -20 -20 -20 -19 -17 -20 -5 8 8 -12 -13 -3 9 8 11
-14 6 12 10 -4 -8 -20 -20 -20 -20 -20 3 -20 -20 -20 -20 -20 -20 -20 -20 -20 -20 -20 -20 -20 -20 -20 -20 -20 -20 -20 -20 -20 -14 -20 -20 -20 -20 -20 -20 -20 -20 -10 -5 -20 -20 -20 -20 -20 -12 11 14 17 11
-20 -20 -20 -20 -20 -20 -20 -20 -20 -20 -20 -20 -20 -20 -20 -20 -20 -20 -20 -20 -20 -20 -20 -20 -20 -20 -20 -20 -19 -20 -20 -20 -20 -20 -20 -20 -20 -20 -20 -20 -20 -20 -20 -20 -20 -20 -20 -20 -20 -19 -5 5 7 10
-20 -20 -20 -16 -2 -20 -20 -20 -20 -14 -20 -20 -12 -20 -20 -20 -20 -20 -20 -20 -20 -20 -18 -17 -18 -20 -20 -20 -20 -20 -20 -20 -20 -20 -20 -20 -20 -20 -20 -20 -20 -20 -20 -20 -20 -20 -20 -20 -20 -20 -20 -20 -19 -11
-20 -20 -20 -20 -20 -20 -20 5 -20 -20 -20 -20 -20 -20 -20 -20 -5 -4 -19 -20 -18 -16 -18 -20 -19 -9 2 -4 -10 -20 -20 -20 -20 -20 -20 -20 -20 -20 -20 -20 -20 -20 -20 -20 -20 -20 -20 -20 -20 -20 -20 -20 -20 -20

GFSWCAN_prec_radar_015.txt.gz
Reflectivity
24 15 6 13 -9 -13 -20 -20 -20 -20 -20 -20 -20 -20 -20 -20 -14 -20 -20 -20 -20 -20 -20 -20 -20 -20 -20 -20 -20 -20 -20 -20 -20 -20 -20 -20 -20 -20 -20 -20 -20 -20 -20 -20 -4 -20 -20 -20 -20 -20 -19 -9 7 -20
31 24 24 7 -6 -3 -8 -20 -20 -20 -20 -20 -20 -20 -20 -20 -20 -20 -20 -20 -20 -20 -20 -20 -20 -20 -20 -20 -20 -20 -20 -20 -20 -20 -20 -20 -20 -20 -20 -5 -20 -20 -20 -20 -20 -20 -12 6 11 -20 -14 -20 -20 -20
24 26 25 13 -19 -16 10 -9 8 -19 -20 -20 -20 -20 -20 -20 -20 -20 -20 -20 -20 6 -20 -20 -20 -20 -20 -20 -20 -20 -20 -20 -20 -20 -7 -16 -20 -17 -12 -19 -12 21 -17 -20 -1 13 -18 -20 -20 6 4 -20 2 9
31 28 23 14 3 -4 -20 -11 3 7 -13 -20 -20 -20 -20 -20 -20 -20 -20 -20 -20 -12 7 -20 -20 -20 -20 -20 -20 -20 -20 -20 -20 -20 2 -18 8 8 5 -20 11 -3 1 9 20 -19 -20 -20 -20 24 -2 26 35 -19
25 32 29 26 18 -2 -16 2 -2 7 12 8 13 1 -20 -20 -20 -9 -20 -20 -20 -11 -19 -20 -20 -20 -20 -20 -20 -20 -20 -20 -20 2 0 -14 12 0 -5 -2 10 -10 -20 -1 8 11 9 -16 32 25 32 4 -19 -16
21 31 31 29 23 28 10 -2 -20 -4 -10 -15 7 13 12 -20 -20 -19 0 -20 -20 -20 4 13 -17 -20 -20 -20 -20 -20 -20 -20 -20 -20 -5 -20 -20 -19 -2 -3 -8 -20 -14 -13 -20 10 -6 22 20 34 28 -9 17 19
4 26 27 28 28 17 24 30 17 1 -1 -11 -20 -20 -20 6 -18 -20 -20 -16 -20 -20 7 10 -19 -20 -20 -20 -20 -20 -20 -20 -20 -20 -7 -20 -20 4 -9 8 -15 -19 0 2 23 -11 -6 12 35 34 6 -17 -20 2
-15 9 15 27 29 24 18 20 15 13 23 15 11 12 17 24 20 12 -5 10 -1 -3 -7 -4 17 1 -19 -10 -19 -18 -17 -18 -20 -20 -20 -20 -20 -20 4 -20 -20 -20 -20 -20 -20 -20 -20 -20 -20 -16 -1 -14 -18 -10
-20 -16 -1 -3 12 13 14 15 14 25 27 30 22 30 26 23 23 21 27 19 34 14 22 23 16 -0 20 13 -7 -16 -20 -19 -18 -20 -20 -20 -20 -15 -7 -20 -20 -20 -20 -20 -20 -20 -20 -20 -20 -20 -19 12 7 -18
-20 -20 -20 -20 -20 -20 -20 -20 14 14 24 30 30 33 34 29 29 26 33 24 25 33 36 30 22 27 24 18 28 5 -20 -19 -16 -5 -20 -6 11 11 -20 -20 -20 -20 -20 -20 -20 -4 8 -4 -20 -12 3 -7 -20 -20
-20 -20 -20 -20 -20 1 10 14 11 15 5 -9 7 19 27 23 26 20 25 21 22 17 20 10 2 -0 4 10 29 2 22 6 -19 -20 -20 -20 -20 -20 -20 -20 -20 -20 -20 -20 -20 3 20 -1 -20 -20 -20 -20 -20 -20
-20 -20 -20 -20 -20 2 13 14 10 -11 -15 -19 -20 -10 -20 -16 -16 -12 -7 -1 -16 -20 -20 -20 -11 8 13 2 18 17 -18 1 -20 -20 -20 -12 -20 -20 -20 -20 -20 -19 10 19 -6 -20 -20 -20 -6 2 -18 -20 -20 -20
-20 -12 -20 -20 -20 -20 -20 8 12 1 -16 -20 -20 -7 -12 -20 -20 -20 -20 -20 -20 -20 -8 -20 -18 -7 -2 -8 8 -10 -18 -20 -19 -18 -20 -20 -20 -20 -20 -19 -5 -19 -20 -20 -20 -20 -20 -20 -20 -20 -20 -20 -20 -20
-20 -20 -20 -20 -20 -11 8 -16 -20 -15 -19 -20 -20 -20 -20 -20 -20 -20 -20 -20 -20 -20 2 16 -20 -20 -20 -20 -20 -20 -20 -20 -20 -20 -20 -20 -20 -20 -20 -20 -20 -20 -20 -20 -20 -20 -20 -20 -20 -20 -20 -20 -20 -20
9 10 -19 -20 -20 -9 5 -6 -20 -20 -20 -20 -20 -20 -20 -20 -20 -20 -16 -20 -16 -6 -20 -20 -17 -18 -19 -20 -20 -20 -20 -20 -20 -20 -20 -20 -20 -20 -20 -20 -20 -20 -20 -20 -20 -20 -20 -20 -20 -20 -20 -20 -20 -20
12 10 1 -7 -20 -20 -20 -20 -20 -20 -20 -20 -20 -20 -20 -20 -20 -20 -18 -13 -9 -20 -20 -20 -20 -20 -20 -20 -20 -20 -20 -20 -20 -20 -20 -20 -20 -20 -20 -20 -20 -20 -20 -20 -20 -20 -20 -20 -20 -20 -20 -20 -20 -20
-13 -19 -19 -19 -20 -12 -20 -20 -20 -20 -20 -20 -20 -20 -20 -20 -20 -20 -20 -20 -20 -20 -20 -20 -20 -20 -20 -20 -20 -20 -20 -20 -20 -20 -20 -20 -20 -20 -20 -20 -20 -20 -20 -20 -20 -20 -20 -20 -20 -20 -20 -20 -20 -20
-20 -20 6 6 -3 -20 -18 -15 -20 -20 -20 -20 -20 -20 -20 -20 -20 -20 -20 -20 -20 -20 -20 -20 -20 -20 -20 -20 -20 -20 -20 -20 -20 -20 -20 -20 -20 -20 -20 -20 -20 -20 -20 -20 -20 -20 -20 -20 -20 -18 -20 -20 -20 -19
-13 -9 -3 13 -5 -19 -4 -19 -20 -20 -20 -20 -20 -20 -20 -20 -20 -20 -20 -20 -20 -19 -20 -20 -20 -20 -20 -20 -20 -20 -20 -20 -20 -20 -20 -20 -20 -20 -20 -20 -20 -20 -20 -20 -20 -20 -20 -20 -20 -10 -20 -20 -20 -20
-1 7 15 -17 -20 -20 -20 -20 -20 -20 -20 -20 -20 -20 -20 -20 -20 -20 -20 -20 -20 -11 -12 -20 -20 -20 -20 -20 -20 -20 -20 -20 -20 -20 -20 -20 -20 -20 -20 -20 -20 -20 -20 -20 -20 -20 -20 -20 -20 -20 -9 3 3 -15
10 21 0 -18 -20 -20 -20 -20 -20 -20 -20 -20 -20 -20 -20 -20 -20 -20 -20 -20 -20 -20 -20 -20 -20 -20 -20 -20 -20 -20 -20 -20 -20 -20 -20 -20 -20 -20 -20 -20 -20 -20 -20 -20 -20 -20 -7 -20 -20 -18 -3 -2 -6 -20
17 8 -3 -18 -20 -20 -20 -20 -20 -20 -20 -20 -20 -20 -20 -20 -20 -20 -20 -20 -13 -20 -20 -20 -20 -20 -20 -20 -20 -20 -20 -20 -20 -20 -20 -20 -20 -20 -20 -20 -20 -20 -20 -20 -20 -20 -20 -20 -20 -8 -10 -1 -17 -9
-7 -19 -19 -20 -20 -20 -20 -20 -20 -20 -20 -20 -20 -20 -20 -20 -20 -20 -20 -20 -20 -20 -20 -20 -20 -20 -20 -20 -20 -20 -20 -20 -20 -20 -20 -20 -20 -20 -20 -20 -20 -20 -20 -20 -20 -20 -15 -20 -18 -17 -15 -12 -20 -20
-20 -20 -20 -20 -20 -20 -20 -20 -20 -20 -20 -20 -20 -20 -20 -20 -20 -20 -20 -20 -20 -20 -20 -20 -20 -20 -20 -20 -20 -20 -20 -20 -20 -20 -20 -20 -20 -20 -20 -20 -20 -20 -20 -20 -20 -20 -20 -20 11 -20 -20 -13 4 -14
-20 -20 -20 -20 -20 -20 -20 -20 -20 -20 -20 -20 -20 -20 -20 -20 -20 -20 -20 -20 -20 -20 -20 -20 -20 -20 -20 -20 -20 -20 -20 -20 -20 -20 -20 -20 -20 -20 -20 -20 -20 -20 -20 -20 -20 -20 -20 -20 -19 3 -10 -18 -20 -20
-20 -20 -20 -20 -20 -20 -20 -20 -20 -20 -20 -20 -20 -20 -20 -20 -20 -20 -20 -20 -20 -20 -20 -20 -20 -20 -20 -20 -20 -20 -20 -20 -20 -20 -20 -20 -20 -20 -20 -20 -20 -20 -20 -20 -18 -20 -20 -20 -16 -20 -16 -16 11 -12
-20 -20 -20 -20 -20 -20 -20 -20 -20 -20 -20 -20 -20 -20 -20 -20 -20 -20 -20 -20 -20 -20 -20 -20 -20 -20 -20 -20 -20 -20 -20 -20 -20 -20 -20 -20 -20 -20 -20 -16 -10 -20 -20 -20 -20 -20 -20 -19 -20 -20 -7 -20 -20 -20
-20 -20 -20 -20 -20 -20 -20 -20 -20 -20 -20 -20 -20 -20 -20 -20 -20 -20 -20 -20 -20 -20 -20 -20 -20 -20 -20 -20 -20 -20 -20 -20 -17 -14 -20 -20 -20 -20 -20 -20 -20 -13 -20 -20 -16 -14 -12 -14 -15 -19 -20 -20 -20 -20
-20 -20 -20 -20 -20 -20 -20 -20 -20 -20 -20 -20 -20 -20 -20 -20 -20 -20 -20 -20 -20 -20 -20 -20 -20 -20 -20 -20 -20 -20 -20 -20 -20 -20 -20 -20 -20 -20 -20 -20 -20 -20 -20 -20 -20 -20 -20 -20 -20 -20 -20 -20 -18 4
-20 -20 -20 -18 -20 -14 -20 -20 -20 -20 -20 -15 -20 -20 -20 -20 -20 -20 -20 -20 -20 -20 -20 -20 -20 -20 -19 -20 -20 -20 -20 -20 -20 -19 -20 -20 -20 -20 -20 -20 -20 -17 -20 -20 -20 -20 -20 -20 -20 -20 -20 -20 -20 3
-20 -20 -20 -20 -20 -20 -20 -20 -20 -20 -20 -20 -20 2 -20 -20 -20 -20 -20 -20 -20 -20 -20 -20 -19 -20 -20 -20 -20 -20 -20 -19 -20 -20 -20 -20 -20 -20 -20 -20 -20 -20 -20 -20 -20 -20 -20 -20 -20 -20 -20 -20 -20 -20
-20 -20 -20 -20 -20 -20 -20 -20 -20 -20 -20 -20 -20 -20 -20 -20 -19 -20 -20 -20 -20 -20 -20 -19 -20 -20 -19 -19 -20 -20 -20 -19 -1 -0 -8 -19 -20 -20 -20 -20 -20 -20 -20 -20 -20 -20 -20 -20 -20 -20 -20 -20 -20 -20
-20 -20 -20 -20 -20 -20 -20 -20 -20 -20 -20 -20 -20 -20 -20 -20 -6 -3 -18 -18 -13 -11 -8 3 10 8 5 -2 -20 -20 -20 -20 -20 -20 -20 -20 -20 -20 -20 -20 -20 -20 -20 -20 -20 -20 -20 -20 -20 -20 -20 -20 -20 -20

GFSWCAN_prec_radar_021.txt.gz
Reflectivity
20 23 -19 -19 -4 -20 -20 -20 -20 -20 -20 -20 -20 -20 -20 -19 -20 -20 -20 -20 -20 -13 -20 -20 -20 -20 -20 -20 -20 -20 -20 -20 -20 -20 -20 -20 -20 -20 -20 -20 -20 -20 -20 -20 -12 -15 -20 -20 -14 7 -15 -4 -8 21
25 22 -2 -5 -20 -20 -20 -20 -20 -20 -20 -20 -20 -20 -20 -20 -20 -20 -20 -20 -20 -20 -20 -20 -20 -20 -20 -20 -20 -20 -20 -20 -20 -20 -20 -20 -20 -20 -20 -20 -20 -20 -20 -20 7 -20 -20 -20 2 -20 -20 -19 -19 -20
29 23 12 10 -8 -20 -20 -20 -20 -20 -20 -20 -20 -20 -20 -20 -20 -20 -20 -20 -20 -19 -20 -20 -20 -20 -20 -20 -20 -20 -20 -20 -20 -20 -20 -20 -20 -20 -20 -20 -20 -20 -20 -20 -20 -20 -20 -20 -20 -20 -20 -4 -4 26
24 22 3 -10 -17 -3 -20 -20 -20 -20 -20 -20 -20 -20 -20 -20 -20 -20 -20 -20 -20 -14 2 -20 -20 -20 -20 -20 -20 -20 -20 -20 -20 -20 -20 -20 -20 -20 -20 -20 -4 -20 -15 8 -20 -20 -19 -20 -19 -9 -9 26 22 -12
-12 -2 -13 -19 7 -7 -20 -20 -7 -19 -20 -20 -20 -20 -20 -20 -20 -20 -20 -20 -20 -20 -20 -20 -20 -20 -20 -20 -20 -20 -20 -20 -20 5 8 -14 -20 -20 -20 -20 -17 -20 -12 -20 -20 -20 19 3 28 6 29 10 -20 -20
7 -16 -20 -7 -3 8 4 -2 -1 -2 -0 5 -2 -20 -20 -20 -20 -20 -20 -20 -20 -20 -16 -20 -20 -20 -20 -20 -20 -20 -20 -20 -20 -19 -4 -20 -20 -20 10 27 13 -20 -1 4 -13 2 6 31 11 31 3 -20 -20 -20
-20 -20 -20 13 -18 -19 -14 -13 -2 -10 10 11 8 8 8 -14 -20 -20 -20 -18 -20 -20 8 -20 -20 -20 -20 -20 -20 -20 -20 -20 -20 -20 -16 -9 7 15 35 28 -4 -20 -20 -20 -20 6 -3 15 22 -20 -20 -20 -20 -20
-20 -20 -20 -7 5 -18 2 -17 -14 -6 10 13 14 12 22 21 14 -0 -14 1 -10 -20 -9 -20 -20 -20 -20 -20 -20 -20 -20 -20 -20 -20 -10 -8 -18 14 22 -14 -20 -20 -20 -16 13 -19 2 -8 -20 -20 -20 -20 -20 -20
-20 -20 -20 5 4 10 2 24 25 2 15 20 23 24 14 11 10 15 -10 -11 20 8 9 4 -12 -20 -20 -20 -20 -20 -20 -20 -10 -1 8 -10 -20 9 10 -18 -20 -20 -20 -20 -20 -18 -20 -20 -20 -20 -20 -20 -20 -20
-3 -12 -20 -20 -20 -16 5 20 30 31 25 27 27 27 20 20 22 15 21 29 25 21 32 20 -7 -17 -20 -20 -20 -20 -2 -16 -13 -20 -20 -3 -1 -18 -20 -20 -20 -20 -20 -20 -20 -20 -20 -20 -20 -20 -20 -20 -20 -20
-9 8 -19 -20 -20 -20 -14 16 26 33 35 34 34 30 22 25 27 31 32 27 14 22 29 16 16 14 10 -0 26 29 15 -16 -20 -20 -20 -20 -20 -20 -20 -20 -20 -20 -20 -20 -20 -20 -20 -20 -20 -20 -20 -20 -20 -20
-20 -0 -20 -15 -18 11 -14 20 33 34 37 37 32 28 35 30 30 31 25 21 16 2 11 -15 3 26 31 30 31 21 -5 -19 -20 -20 -20 -20 -20 -20 -20 -20 -20 -20 -20 -20 -20 -20 -20 -20 -20 -20 -20 -20 -20 -20
-14 -19 -20 -19 8 16 16 9 20 30 32 36 36 36 35 26 20 9 -11 -11 -16 -20 -9 13 2 -2 -4 -6 15 9 -3 -12 -20 -20 -20 -20 -20 -20 -20 -20 -20 -20 -20 -20 -20 -20 -20 -20 -20 -20 -20 -20 -20 -20
-20 -20 -20 -20 4 19 24 15 23 28 27 30 33 23 19 17 6 -18 -16 -10 5 4 -1 -17 -20 -20 -20 -20 -14 -11 -20 -20 -20 -20 -20 -20 -20 -20 -20 -20 -20 -20 -20 -20 -20 -20 -20 -20 -20 -20 -20 -20 -20 -20
-20 -20 -20 -20 -17 2 19 25 17 3 15 16 13 12 8 3 3 10 14 8 0 -4 -18 -15 -20 -19 -20 -20 -20 -20 -20 -20 -20 -20 -20 -20 -20 -20 -20 -20 -20 -20 -20 -20 -20 -20 -20 -20 -20 -20 -20 -20 -20 -20
13 4 -20 2 -4 -4 16 14 0 -20 -1 1 6 10 10 9 10 5 0 -12 -13 -15 -16 -11 -17 -20 -20 -20 -20 -20 -20 -20 -20 -20 -20 -20 -20 -20 -20 -20 -20 -20 -20 -20 -20 -20 -20 -20 -20 -20 -20 -20 -20 -20
16 1 -20 -10 13 -6 -11 -20 -17 -11 -18 -20 -20 -20 4 9 7 1 -5 -6 -8 -20 -20 -20 -20 -20 -20 -20 -20 -20 -20 -20 -20 -20 -20 -20 -20 -20 -20 -20 -20 -20 -20 -20 -20 -20 -20 -20 -20 -20 -20 -20 -20 -20
6 -6 -14 16 19 -1 -16 -18 -8 -20 -20 -20 -20 -20 -20 -20 -20 -20 -20 -20 -20 -20 -20 -20 -20 -20 -20 -20 -20 -20 -20 -20 -20 -20 -20 -20 -20 -20 -20 -20 -20 -20 -20 -20 -20 -20 -20 -20 -20 -20 -20 -20 -20 -20
-1 2 5 25 21 19 12 4 -10 -20 -20 -20 -20 -20 -20 -20 -20 -20 -20 -20 -20 -20 -20 -20 -20 -20 -20 -20 -20 -20 -20 -20 -20 -20 -20 -20 -20 -20 -20 -20 -20 -20 -20 -20 -20 -20 -20 -20 -20 -20 -20 -20 -20 -20
31 26 25 24 -4 -20 -20 -20 -20 -20 -20 -20 -20 -20 -20 -20 -20 -20 -20 -20 -20 -20 -20 -20 -20 -20 -20 -20 -20 -20 -20 -20 -20 -20 -20 -20 -20 -20 -20 -20 -20 -20 -20 -20 -20 -20 -20 -20 -20 -20 -20 -13 -12 -20
34 31 25 1 -20 -20 -20 -20 -20 -20 -20 -20 -20 -20 -20 -20 -20 -20 -20 -20 -20 -20 -20 -20 -20 -20 -20 -20 -20 -20 -20 -20 -20 -20 -20 -20 -20 -20 -20 -20 -20 -20 -20 -20 -20 -20 -20 -20 -20 -20 -20 -20 -20 -2
32 23 11 -1 -6 -20 -20 -20 -20 -20 -20 -20 -20 -20 -20 -20 -20 -20 -20 -20 -20 -20 -20 -20 -20 -20 -20 -20 -20 -20 -20 -20 -20 -20 -20 -20 -20 -20 -20 -20 -20 -20 -20 -20 -20 -20 -20 -20 -20 -20 -20 -20 -4 -20
28 18 7 -1 -20 -20 -20 -20 -20 -20 -20 -20 -20 -20 -20 -20 -20 -20 -20 -20 -20 -20 -20 -20 -20 -20 -20 -20 -20 -20 -20 -20 -20 -20 -20 -20 -20 -20 -20 -20 -20 -20 -20 -20 -20 -20 -20 -20 -20 -20 -15 6 -20 -20
3 -18 -20 -20 -20 -20 -20 -20 -20 -20 -20 -20 -20 -20 -20 -20 -20 -20 -20 -20 -20 -20 -20 -20 -20 -20 -20 -20 -20 -20 -20 -20 -20 -20 -20 -20 -20 -20 -20 -20 -20 -20 -20 -20 -20 -20 -20 -20 4 -17 -20 -20 -19 -2
-20 -20 -20 -20 -20 -20 -20 -20 -20 -20 -20 -20 -20 -20 -20 -20 -20 -20 -20 -20 -20 -20 -20 -20 -20 -20 -20 -20 -20 -20 -20 -20 -20 -20 -20 -20 -20 -20 -20 -20 -20 -20 -20 -20 -20 -20 -20 -20 -20 -20 -20 -19 3 -19
-20 -20 -20 -20 -20 -20 -20 -20 -20 -20 -20 -20 -20 -20 -20 -20 -20 -20 -20 -20 -20 -20 -20 -20 -20 -20 -20 -20 -20 -20 -20 -20 -20 -20 -20 -20 -20 -20 -20 -20 -20 -20 -20 -20 -20 -20 -20 -20 -20 -20 -20 -20 -19 -17
-20 -20 -20 -20 -20 -20 -20 -20 -20 -20 -20 -20 -20 -20 -20 -20 -20 -20 -20 -20 -20 -20 -20 -20 -20 -20 -20 -20 -20 -20 -20 -20 -20 -20 -20 -20 -20 -17 -18 -12 -7 -18 -19 -20 -20 -20 -20 -8 -20 -20 -20 -11 -14 -9
-20 -20 -20 -20 -20 -20 -20 -20 -20 -20 -20 -20 -20 -20 -20 -20 -20 -20 -20 -20 -20 -20 -20 -20 -19 -16 -20 -20 -20 -20 -20 -20 -20 -20 -20 -20 -20 -20 -20 -20 -17 -19 -20 -20 -20 -20 -20 -20 -20 -20 -20 -20 -20 -18
-20 -20 -20 -20 -20 -20 -20 -20 -20 -20 -20 -20 -20 -20 -20 -20 -20 -20 -20 -20 -20 -20 -20 -20 -20 -20 -20 -20 -20 -20 -20 -20 -20 -20 -20 -20 -20 -20 -20 -20 -20 -20 -20 -20 -13 3 -14 -20 -20 -20 -20 -20 -20 -20
-20 -20 -20 -20 -20 -20 -20 -20 -20 -20 -20 -20 -20 -20 -20 -20 -20 -20 -20 -20 -20 -20 -20 -20 -17 -17 -17 -12 -20 -20 -20 -18 -16 -14 -16 -18 -20 -20 -20 -20 -20 -20 -20 -20 -20 -20 -20 -20 -20 -20 -20 -20 -20 -20
-20 -20 -20 -20 -20 -20 -20 -20 -20 -20 -20 -20 -20 -20 -20 -20 -20 -20 -20 -20 -20 -20 -20 -20 -19 8 4 7 1 -20 -15 -1 1 -2 -10 -18 -18 -20 -20 -20 -20 -20 -20 -20 -20 -20 -20 -20 -20 -20 -20 -20 -20 -20
-20 -20 -20 -20 -20 -20 -20 -20 -20 -20 -20 -20 -20 -20 -20 -20 -20 -20 -20 -20 -20 -20 -20 -20 -19 -11 5 8 6 5 5 -1 -17 -17 -13 -15 -19 -19 -20 -20 -20 -20 -20 -20 -20 -20 -20 -20 -20 -20 -20 -20 -20 -20
-20 -20 -20 -20 -20 -20 -20 -20 -20 -20 -20 -20 -20 -20 -20 -20 -20 -20 -20 -20 -20 -20 -20 -19 -9 1 3 1 1 -4 -3 5 7 1 -9 -16 -18 -20 -20 -20 -20 -20 -20 -20 -20 -20 -20 -20 -20 -20 -20 -20 -20 -20

GFSWCAN_prec_radar_024.txt.gz
Reflectivity
20 16 3 8 -8 -20 -20 -20 -20 -20 -20 -20 -20 -20 -20 -20 -20 -20 -20 -20 -20 -10 -20 -20 -20 -20 -20 -20 -20 -20 -20 -20 -20 15 14 -20 -7 -20 -20 -20 -20 -16 -20 -20 -10 -20 -0 -20 -19 4 14 -19 -3 10
27 9 -3 -1 8 -13 -20 -20 -20 -20 -20 -20 -20 -20 -20 -20 -20 -20 -20 -20 -20 -20 -20 -20 -20 -20 -20 -20 -20 -20 -20 -20 -20 -3 0 -19 14 3 6 -20 -20 -20 -20 -18 -17 -20 -20 -20 -20 -4 9 -16 -19 14
31 30 18 -0 -20 -20 -20 -20 -20 -20 -20 -20 -20 -20 -20 -20 -20 -20 -20 -20 -20 -0 -20 -20 -20 -20 -20 -20 -20 -20 -20 -20 -20 -20 -20 -20 16 -20 -11 -20 -20 -20 -20 -20 -8 -20 -18 8 -20 -20 -16 -15 3 -3
17 29 29 4 10 -20 -20 -20 -20 -20 -20 -20 -20 -20 -20 -20 -20 -20 -20 -20 -20 -10 24 -20 -20 -20 -20 -20 -20 -20 -20 -20 -20 -20 -6 13 19 -20 -14 -5 -9 -10 -6 -17 -5 -20 -6 2 -17 -20 -19 0 10 -9
-13 16 24 9 7 4 -16 -20 -20 -20 -20 -20 -20 -20 -20 -20 -20 -20 -20 -20 -20 -20 17 -20 -20 -20 -20 -20 -20 -20 -20 -20 -20 11 22 16 -20 -17 -20 -20 -20 -20 -12 -3 3 6 7 -7 -15 7 13 -7 -18 -20
-16 -20 -19 4 7 -9 -20 -20 -20 -20 -20 -20 -20 -20 -20 -20 -20 -20 -20 -20 -20 -20 -14 21 -20 -20 -20 -20 -20 -20 -20 -20 -20 -14 4 -12 -20 3 1 -6 -20 -20 -20 9 -20 15 -10 -14 24 -16 -20 -20 -20 -20
-20 -20 -20 -20 -20 -20 -20 -20 -20 -17 -20 -13 -18 10 -15 -19 -20 -1 -20 -20 -20 -20 12 21 -18 -20 -20 -20 -20 -20 -16 4 12 -20 1 -20 -20 -2 5 -0 -20 -11 -7 -11 -18 -19 12 20 -5 -20 -20 -20 -20 -20
-20 -20 -20 -20 -20 -20 -20 -20 -8 -3 6 -2 3 3 9 9 -19 -20 -20 -20 -20 -20 -19 18 -5 -20 -20 -20 -11 -20 -20 -20 -20 -20 -6 -20 -20 3 19 -2 -20 -20 -20 -19 -6 -7 -19 -20 -20 -20 -20 -20 -20 -20
-20 -20 -20 -20 -20 -20 -20 -18 22 17 -7 6 13 19 14 12 13 -5 -4 -20 -20 -20 21 17 8 10 -20 -20 -20 -20 -20 14 -20 6 -11 -19 -9 -5 -20 -20 -20 -14 -14 -19 -20 -20 -20 -20 -20 -20 -20 -20 -20 -20
1 -3 -19 -20 -20 -20 -20 -20 16 22 23 22 16 17 19 14 23 -1 0 12 -18 -19 -10 7 -4 -4 -5 -11 -14 7 -19 7 7 -18 -9 10 12 -20 -20 -20 -18 -20 -20 -20 -20 -20 -20 -20 -20 -20 -20 -20 -20 -20
0 -1 -1 -20 -20 -20 -20 -18 8 34 36 37 30 26 20 25 12 7 17 21 11 28 16 6 13 6 -14 -9 2 -10 22 14 -5 -8 -4 1 -14 -20 -20 -20 -20 -20 -20 -20 -20 -20 -20 -20 -20 -20 -20 -20 -20 -20
-10 4 -19 -7 -20 -20 -11 21 24 33 37 36 31 20 28 30 30 30 32 31 15 14 2 9 16 5 9 17 29 28 19 -2 -6 -20 0 -5 -20 -20 -20 -20 -20 -20 -20 -20 -20 -20 -20 -20 -20 -20 -20 -20 -20 -20
-11 -20 -20 -20 12 9 -19 22 18 31 31 35 32 32 34 30 26 19 13 11 11 4 -5 -6 13 20 30 23 8 -0 -6 2 -20 -2 -19 -19 -20 -20 -20 -20 -20 -20 -20 -20 -20 -20 -20 -20 -20 -20 -20 -20 -20 -20
-20 6 -20 -5 12 15 -13 7 25 31 33 37 36 29 32 25 31 25 14 -8 0 20 8 -1 -4 -12 4 3 9 -0 -12 -19 0 -1 -20 -15 -20 -20 -20 -20 -20 -20 -20 -20 -20 -20 -20 -20 -20 -20 -20 -20 -20 -20
-20 8 -20 10 13 16 18 17 28 24 26 26 25 23 21 20 16 25 26 16 7 15 5 -3 -14 -13 -1 8 -4 -10 -9 -6 -9 -20 -20 -20 -20 -20 -20 -20 -20 -20 -20 -20 -20 -20 -20 -20 -20 -20 -20 -20 -20 -20
-18 20 -7 2 -20 10 19 32 15 6 15 12 15 16 16 16 14 18 13 9 10 6 4 -5 -18 -20 -20 -18 -20 -17 -20 -20 -20 -20 -20 -20 -20 -20 -20 -20 -20 -20 -20 -20 -20 -20 -20 -20 -20 -20 -20 -20 -20 -20
8 25 -19 10 8 -0 20 28 11 11 9 -2 4 9 9 10 8 9 10 11 9 8 6 4 -2 2 -9 -20 -20 -20 -20 -20 -20 -20 -20 -20 -20 -20 -20 -20 -20 -20 -20 -20 -20 -20 -20 -20 -20 -20 -20 -20 -20 -20
29 12 -19 -16 3 -3 -18 -20 -20 -20 -20 -2 -6 6 4 -9 -20 -18 -13 -17 -19 -13 -16 -20 -20 -20 -20 -20 -20 -20 -20 -20 -20 -20 -20 -20 -20 -20 -20 -20 -20 -20 -20 -20 -20 -20 -20 -20 -20 -20 -20 -20 -20 -20
21 -17 -20 7 18 -20 -4 -20 -20 -20 -20 -20 -5 -11 -20 -18 -20 -20 -20 -20 -20 -20 -20 -20 -20 -20 -20 -20 -20 -20 -20 -20 -20 -20 -20 -20 -20 -20 -20 -20 -20 -20 -20 -20 -20 -20 -20 -20 -20 -20 -20 -20 -12 -15
32 30 17 12 -0 21 6 -20 -20 -20 -20 -20 -20 -20 -20 -20 -15 -18 -16 -20 -20 -20 -20 -20 -20 -20 -20 -20 -20 -20 -20 -20 -20 -20 -20 -20 -20 -20 -20 -20 -20 -20 -20 -20 -20 -20 -20 -20 -20 -20 -9 -16 -15 -8
30 31 30 30 11 1 -9 -20 -20 -20 -20 -20 -20 -20 -20 -20 -20 -20 -17 -20 -11 1 -20 -20 -20 -20 -20 -20 -20 -20 -20 -20 -20 -20 -20 -20 -20 -20 -20 -20 -20 -20 -20 -20 -20 -20 -20 -20 -20 -20 2 11 13 11
31 28 22 -1 -11 -20 -20 -20 -20 -20 -20 -20 -20 -20 -20 -20 -20 -20 -20 -10 -20 -20 -20 -20 -20 -20 -20 -20 -20 -20 -20 -20 -20 -20 -20 -20 -20 -20 -20 -20 -20 -20 -20 -20 -20 -16 -20 -20 -8 -15 -15 -13 5 10
20 24 21 2 -16 -20 -20 -20 -20 -20 -20 -20 -20 -20 -20 -20 -20 -20 -20 -20 -20 -20 -20 -20 -20 -20 -20 -20 -20 -20 -20 -20 -20 -20 -20 -20 -20 -20 -20 -20 -20 -20 -20 -20 -20 -11 2 -19 -20 -17 -0 -7 5 -7
12 14 14 -1 -20 -20 -20 -20 -20 -20 -20 -20 -20 -20 -20 -20 -19 -19 -20 -20 -20 -20 -20 -20 -20 -20 -20 -20 -20 -20 -20 -20 -20 -20 -20 -20 -20 -20 -20 -20 -20 -20 -20 -20 -5 10 3 10 -13 -9 6 7 8 10
16 21 17 1 -20 -20 -20 -20 -20 -20 -20 -20 -20 -20 -20 -20 -20 -20 -20 -20 -20 -20 -20 -20 -20 -20 -20 -20 -20 -20 -20 -20 -20 -20 -20 -20 -20 -20 -20 -19 -19 -20 -20 -6 10 -1 5 8 8 8 7 7 5 3
-1 -11 -20 -20 -20 -20 -20 -20 -20 -20 -20 -20 -20 -20 -20 -20 -20 -20 -20 -20 -20 -20 -20 -20 -20 -20 -20 -20 -20 -20 -20 -20 -20 -20 -20 -20 -20 -20 -6 6 6 0 -19 -8 -7 -1 -5 -7 -4 2 -11 -11 4 -13
-3 -20 -20 -20 -20 -20 -20 -20 -20 -20 -20 -20 -20 -20 -20 -20 -20 -20 -20 -20 -20 -20 -20 -20 -20 -20 -20 -20 -20 -20 -20 -7 2 3 -20 -20 -20 -20 -17 -4 -7 -7 -14 -3 -1 -0 1 0 -0 -2 -6 -4 -2 -20
-20 -20 -20 -20 -20 -20 -20 -20 -20 -20 -20 -20 -20 -20 -20 -20 -20 -20 -20 -20 -20 -20 -20 -20 -20 -20 -20 -6 -7 -5 -20 -1 6 6 -7 -20 -20 -20 -18 -16 -18 -20 -12 5 7 3 -2 -1 -1 -2 -1 1 -1 -3
-20 -20 -20 -20 -20 -20 -20 -20 -20 -20 -20 -20 -20 -20 -20 -20 -13 -20 -18 -20 -20 -20 -20 -20 -20 -20 -20 -20 -20 -20 -20 -17 -15 1 17 10 14 4 -10 4 -1 -20 -20 -20 -20 -20 -20 -20 -8 -20 -20 -3 -2 -2
-20 -20 -20 -20 -20 -20 -20 -20 -20 -20 -20 -20 -20 -20 -20 -17 -2 -19 -20 -20 -20 -20 -20 -20 -20 -4 -5 -20 -20 -20 -13 5 15 12 3 -4 -1 2 -2 -10 -11 -14 -11 -7 -12 -16 -20 -20 -20 -20 -20 -20 -20 -20
-20 -20 -20 -20 -20 -20 -20 -20 -20 -20 -20 -20 -20 -20 -20 -20 -2 -9 -20 -20 -20 -20 -20 -20 -20 -2 -17 -20 -9 -20 -15 -20 -20 -17 -10 -1 -6 -9 -9 -7 -7 -18 -20 -5 -20 -20 -20 -20 -20 -20 -20 -20 -20 -20
-20 -20 -20 -20 -20 -20 -20 -20 -20 -20 -20 -20 -20 -20 -7 -20 -20 -6 -4 -12 -20 -20 -20 -20 -20 -6 -8 -19 -16 -18 -19 -20 -20 -20 -20 -20 -20 -16 -7 -2 -7 -20 -20 -20 -20 -20 -20 -20 -20 -20 -20 -20 -20 -20
-20 -20 -20 -20 -20 -20 -20 -20 -20 -20 -20 -20 -20 -20 -20 -20 -20 -20 -20 -5 1 -0 -13 -13 -20 -20 -11 -16 -20 -20 -20 -20 -20 -20 -20 -19 -18 -18 -18 -19 -20 -20 -20 -20 -20 -20 -20 -20 -20 -20 -20 -20 -20 -20

GFSWCAN_prec_radar_027.txt.gz
Reflectivity
14 10 -20 -20 -20 -20 -20 -20 -20 -20 6 -20 -20 -20 -20 -20 -20 -12 -20 -20 -20 -3 -20 -20 -20 -20 -20 -20 -20 -20 -20 -20 -20 5 -4 -16 -20 -20 -20 -20 -20 -20 -20 -20 -20 -7 -11 -20 -15 5 12 -20 -5 2
18 15 -19 -13 -17 -20 -20 -20 -20 -20 -20 -20 -20 -20 -20 -20 -20 -20 -20 -20 -20 -20 -20 -20 -20 -20 -20 -20 -20 -20 -20 -20 -20 2 -6 -18 16 15 -11 -20 -20 -20 -19 -4 -8 -15 -5 5 19 -9 -18 -20 -20 -20
27 21 8 -1 1 -17 -20 -20 -20 -20 -20 -20 -20 -20 -20 -20 -20 -20 -20 -20 -20 -16 -20 -20 -20 -20 -20 -20 -20 -20 -20 -20 -20 -20 -20 -16 5 -20 -11 -20 -20 -20 -20 -17 4 -20 -20 -8 22 -10 -17 -18 -20 -20
32 26 20 11 6 -7 -20 -20 -20 -20 -20 -20 -20 -20 -20 -20 -20 -20 -20 -20 -20 -11 25 -20 -20 -20 -20 -20 -20 -20 -20 -20 -20 -20 6 11 10 -20 3 -20 -20 -20 -20 -20 3 -9 -20 -20 -20 13 21 -20 -20 -20
32 30 19 -2 -4 -1 -20 -20 -20 -20 -20 -20 -20 -20 -20 -20 -20 -20 -20 -20 -20 -20 12 -20 -20 -20 -20 -20 -20 -20 -20 -20 -20 2 16 5 -8 0 -11 -9 -20 -20 -20 2 4 -14 -11 35 27 5 -20 -20 -20 -20
24 20 26 25 13 10 -20 -20 -20 -20 -20 -20 -20 -20 -20 -20 -20 -20 -20 -20 -20 -20 -14 13 -20 -20 -20 -20 -20 -20 -17 -2 6 0 -3 -20 -6 1 -1 1 -20 -20 -20 -20 -1 -20 -3 -3 -20 -20 -20 -20 -20 -20
4 15 12 25 20 15 -14 -19 -19 -20 -20 -20 -20 -9 -20 -20 1 -4 -10 -14 -13 -20 9 17 -18 -20 -20 -20 -20 -4 -20 3 5 9 -8 -17 7 -9 18 -8 -20 -20 -20 -20 -20 -18 -19 -20 -20 -20 -20 -20 -20 -20
-20 -10 -7 -13 23 20 12 -20 -20 -20 -20 -20 -18 -6 -12 -8 -12 -3 -20 -20 -20 -20 -19 16 -3 -20 -20 -20 -17 -20 -8 -10 11 11 -14 -18 -16 -4 -5 -20 -20 -20 -20 -20 -20 -18 -1 -20 -20 -20 -20 -20 -20 -20
-20 -20 -16 -20 -19 -19 -14 3 -20 -20 -20 -18 -10 20 14 4 -17 -12 -16 -20 -20 -20 17 17 -15 -20 -20 -13 -10 -4 3 16 -12 11 -12 -14 -14 -15 -20 -20 -20 -20 -20 -20 19 7 -20 -20 -20 -20 -20 -20 -20 -20
-20 -20 -20 -20 -20 -20 -20 -20 -20 -15 21 13 10 6 11 2 19 -18 -19 -19 -20 -18 10 16 -7 -19 -15 -12 0 -11 -4 14 11 -20 -20 -4 1 -16 -20 -20 -20 -20 -10 -18 -20 -20 -20 -20 -20 -20 -20 -20 -20 -20
-20 -20 -20 -20 -20 -20 -20 -20 -20 7 32 32 25 23 15 25 -11 21 28 9 -6 -10 -16 -20 -20 -20 -20 1 1 -19 10 -1 -6 3 -0 2 -4 -20 -20 -20 -20 -20 -20 -20 -20 -20 -20 -20 -20 -20 -20 -20 -20 -20
-20 -20 -20 -20 -3 -20 -20 -18 15 18 32 32 30 30 28 14 26 30 31 6 -7 -15 -6 8 -4 -17 -17 -20 -18 16 30 23 6 -18 3 -5 -13 -20 -20 -20 -20 -20 -20 -20 -20 -20 -20 -20 -20 -20 -20 -20 -20 -20
-20 -20 -20 -14 3 -13 4 -20 4 25 30 33 33 35 36 30 27 25 10 4 -14 -13 -5 16 13 13 22 24 25 25 20 16 -16 5 -3 -10 -20 -20 -20 -20 -20 -20 -20 -20 -20 -20 -20 -20 -20 -20 -20 -20 -20 -20
-20 -20 -20 -15 6 11 -5 -6 -2 21 28 33 35 29 30 28 34 31 28 -1 -4 -5 -19 -12 14 23 29 30 31 27 20 -15 5 3 -12 -20 -20 -20 -20 -20 -20 -20 -20 -20 -20 -20 -20 -20 -20 -20 -20 -20 -20 -20
-20 -20 -20 -13 6 14 13 4 9 12 18 30 30 22 23 30 29 27 27 10 5 12 19 27 23 18 24 18 16 11 -1 1 -3 5 -19 -20 -20 -20 -20 -20 -20 -20 -20 -20 -20 -20 -20 -20 -20 -20 -20 -20 -20 -20
-20 -20 1 4 9 14 8 -5 10 -3 13 26 28 22 27 26 25 29 31 23 26 24 16 21 22 19 10 10 -1 7 7 -8 2 -20 -20 -20 -20 -20 -20 -20 -20 -20 -20 -20 -20 -20 -20 -20 -20 -20 -20 -20 -20 -20
-20 -20 -20 6 12 13 16 24 28 28 9 10 -0 18 21 26 24 24 29 34 26 30 24 23 12 15 13 10 4 4 -1 -4 -20 -20 -20 -20 -20 -20 -20 -20 -20 -20 -20 -20 -20 -20 -20 -20 -20 -20 -20 -20 -18 1
13 -15 -20 2 5 10 -5 -5 4 -12 -20 -20 -20 6 6 7 8 8 6 5 4 6 7 7 6 8 7 -0 1 -8 -20 -16 -20 -20 -20 -20 -20 -20 -20 -20 -20 -20 -20 -20 -20 -20 -20 -20 -20 -20 -20 -20 -20 -6
-2 -8 -6 8 6 -0 -15 -12 -20 -11 -20 -20 -16 -20 -4 -6 -15 -12 -7 0 0 -3 -16 -12 -17 -20 -20 -20 -20 -20 -20 -20 -20 -20 -20 -20 -20 -20 -20 -20 -20 -20 -20 -20 -20 -20 -20 -20 -20 -20 1 5 -0 -12
-8 31 24 10 21 26 6 -20 -20 -20 -20 -20 -20 -20 -13 -14 -5 -18 -17 -20 -20 -20 -20 -20 -20 -20 -20 -20 -20 -20 -20 -20 -20 -20 -20 -20 -20 -20 -20 -20 -20 -20 -20 -20 -20 -20 -20 -20 -5 2 -4 -15 -1 6
20 29 21 4 -2 21 -13 -20 -20 -20 -20 -20 -20 -20 -20 -20 -20 -20 -4 -20 -16 -7 -20 -20 -20 -20 -20 -20 -20 -20 -20 -20 -20 -20 -20 -20 -20 -20 -20 -20 -20 -20 -20 -20 -20 -9 -20 -20 13 -7 -20 -11 -18 -11
28 28 27 3 33 11 -19 -17 -20 -20 -4 -5 -18 -20 -1 -16 -16 -19 -20 -9 -10 -20 -20 -20 -20 -20 -20 -20 -20 -20 -20 -20 -20 -20 -20 -20 -20 -20 -20 -20 -20 -12 14 -14 -15 13 8 2 -15 -12 9 10 7 7
32 26 22 10 -4 7 9 -17 -9 -20 -2 -0 -11 -9 -2 -0 -16 -20 -12 -16 -20 -20 -20 -20 -20 -20 -20 -20 -20 -20 -20 -20 -20 -20 -20 -20 -20 -20 -20 -20 -20 -1 8 -20 -9 5 -2 -7 6 -3 8 -11 9 8
27 22 11 -18 -20 -12 -19 -17 -20 -20 -20 -20 -20 -20 -20 -17 -20 -8 -20 -20 -20 -20 -20 -20 -20 -20 -20 -20 -20 -20 -20 -20 -20 -20 -20 -20 -20 7 13 -18 10 -12 2 2 -14 -9 8 -4 -17 13 10 7 2 12
28 19 16 -0 -7 -20 -20 -6 -20 -20 -20 -20 -20 -20 -6 -20 -20 -20 -20 -20 -19 2 -6 -20 -20 -20 -20 -20 -20 -20 -20 -20 -20 -20 -6 20 19 16 15 14 16 18 -3 -15 -3 15 12 -8 -17 8 8 11 7 -9
18 10 -19 -20 -20 -15 -20 -20 -20 -20 -20 -20 -20 -20 -20 -15 -20 -20 -20 2 2 -14 -1 -1 -20 -20 -20 -20 -20 -20 -13 -18 -20 -20 -13 10 17 19 30 20 18 15 -1 10 -0 5 6 -19 -20 -12 5 -5 8 2
-16 -19 -20 -20 -20 -20 -20 -20 -20 -20 -20 -20 -20 -16 -20 -20 -20 -20 -20 -20 -20 -11 -20 -20 -20 -14 -20 -20 -20 -20 -20 -20 -10 3 -15 -9 -6 4 27 16 11 22 8 5 9 9 7 -12 -20 -16 -17 -6 4 5
-20 -20 -19 -8 -10 -20 -20 -20 -20 -20 -20 -20 -20 -20 -20 -20 -20 -18 -20 -7 -4 -20 -20 -20 -20 -20 -7 -9 -7 -18 -5 -2 -3 -20 -20 -17 17 8 -3 13 24 20 3 10 11 2 8 7 -2 2 -8 5 1 3
-16 -12 -20 -20 -20 -20 -20 -20 -20 -20 -20 -20 -20 -18 -18 -20 -4 -3 -5 -4 -7 -6 -20 -19 -19 -4 -2 -3 -6 5 -13 -1 -16 -20 -19 0 -20 -13 6 3 -2 -2 0 2 6 4 -12 -9 -6 -7 -7 -3 -19 5
-18 -20 -19 -20 -20 -20 -7 -19 -6 -16 -20 -20 -20 -20 -20 -4 -2 -3 -1 -3 -13 -4 -1 -0 -1 -0 -1 -1 -1 -3 6 2 -1 -0 -4 -6 3 3 0 -2 -14 -20 -6 2 4 5 5 -9 -4 -11 -3 -2 -2 -5
-20 -20 -5 -3 -8 -16 -20 -20 -15 -20 -20 -8 -11 -11 -17 -18 -0 -2 -2 -1 -0 -1 -4 -3 -3 0 -1 -1 -1 -2 -20 -7 -2 -1 -14 -10 -3 -3 -9 -20 -4 -16 -6 1 5 8 -0 -2 1 -3 -3 -5 -20 -4
-20 -20 -6 -20 -2 -20 -20 -16 -19 -19 -19 -20 -11 -20 -4 -3 -4 -2 0 -1 -3 -6 -6 -2 -2 -1 -2 1 5 3 -13 2 0 -0 -1 -20 -5 -19 -20 -20 -19 -8 -1 3 4 1 -1 -4 -1 -3 -2 -5 -20 -20
-20 -20 -20 -20 -10 -16 -20 -20 -20 -20 -20 -20 -3 -4 -4 -6 -20 -1 -1 0 -0 -1 -1 0 0 -1 2 1 -1 4 -10 -0 0 0 -9 -20 -20 -20 -20 -20 -19 -19 -8 3 5 1 -6 -7 -7 -12 -20 -20 -20 -20

GFSWCAN_prec_radar_030.txt.gz
Reflectivity
-15 1 -17 -20 -20 -20 -20 -14 -20 9 6 -20 -20 -20 -20 -20 -20 -20 -20 -20 -20 -8 -20 -20 -20 -20 -20 -20 -9 -20 -20 -20 -20 -8 -17 -20 -20 -20 -20 -20 -20 -20 -20 -20 -20 -17 -16 -20 -20 -20 -1 -20 -20 -16
-20 -20 -20 -20 -20 -20 -20 -20 -20 -19 -20 -20 -20 -20 -20 -20 -20 -20 -20 -20 -20 -20 -20 -20 -20 -20 -20 -20 -20 -20 -20 -20 -20 -7 -10 -20 9 3 -20 -20 -20 -20 -20 -20 -20 -20 -20 15 8 -20 -19 -20 -10 -20
28 -16 -20 -20 -19 -20 -20 -20 -20 -20 -20 -20 -20 -20 -20 -20 -20 -20 -20 -20 -20 -16 -20 -20 -20 -20 -20 -20 -20 -20 -20 -20 -20 -20 -20 -20 2 -20 -20 -20 -20 -20 -20 -20 -19 -20 -20 -20 -20 -20 -20 -19 -20 -7
32 29 2 -20 -16 -20 -20 -20 -20 -20 -20 -20 -20 -20 -20 -20 -20 -20 -20 -20 -20 -20 21 -20 -20 -20 -20 -20 -20 -20 -20 -20 -20 -20 -5 11 -7 -20 -17 -20 -20 -20 -20 -20 -20 -20 -20 -20 -20 -20 -18 14 -10 -20
30 29 21 16 -13 -18 -20 -20 -20 -20 -20 -20 -20 -20 -20 -20 -20 -20 -20 -20 -20 -20 6 -20 -20 -20 -20 -20 -20 -20 -20 -20 -20 -4 14 -1 -20 -20 -6 -17 -20 -20 -20 -20 -10 -16 -20 -20 -20 -20 -18 -20 -20 -20
34 29 26 25 18 6 4 -20 -20 -20 -20 -20 -20 -20 -20 -20 -20 -20 -20 -20 -20 -20 -14 7 -20 -20 -20 -20 -20 -20 -20 1 8 -18 -7 -20 -20 -9 12 6 -20 -19 -20 -20 -20 -20 -20 -20 -20 -20 -20 -20 -20 -20
19 36 27 18 19 13 0 -20 -17 -20 -20 -20 -20 -20 -20 -20 -20 -9 -13 -20 -20 -20 -6 8 -18 -20 -20 -20 -20 -6 -20 -20 8 5 -0 -20 -20 -15 8 -20 -18 -20 -20 -20 -20 -20 -20 -20 -20 -20 -20 -20 -20 -20
11 21 28 24 19 11 8 -2 3 -20 -20 -20 -4 -20 -20 -20 -7 -20 -20 -20 -20 -20 -20 11 -7 -20 -20 -20 -9 -20 -20 -15 7 10 -9 -20 -7 -17 -12 -20 -20 -20 -20 -20 -20 -20 -20 -20 -20 -20 -20 -20 -20 -20
-12 6 11 11 18 22 17 -2 -20 -1 -20 -18 8 2 -20 -20 -14 -9 -20 -20 -20 -20 11 9 -20 -20 -20 -20 -20 -20 -2 4 -20 11 -10 -15 -20 -16 -20 -20 -20 -20 -20 -20 -20 -20 -20 -20 -20 -20 -20 -20 -20 -20
-14 2 -2 1 5 8 26 29 5 -20 -20 -20 -6 16 23 -15 -20 -20 2 -20 -16 -10 5 -8 -20 3 -15 -20 3 -3 1 6 8 -20 -20 -20 -20 -20 -20 -20 -20 -20 -20 -20 -20 -20 -20 -20 -20 -20 -20 -20 -20 -20
-20 -20 -20 -20 -17 -6 -13 6 18 22 25 27 13 8 21 14 -16 -20 6 8 5 2 -18 -13 0 -20 -20 -12 7 -6 7 8 -3 -11 -5 -17 -19 -20 -20 -20 -20 -20 -19 -20 -19 -20 -20 -20 -20 -20 -20 -20 -20 -20
-20 -20 -20 -19 2 -20 -20 1 12 10 29 25 21 18 25 23 26 8 21 4 -9 -20 -20 -20 -20 -20 -17 -8 -20 -11 -4 -10 -9 -12 22 -0 -20 -20 -20 -20 -20 -20 -20 -20 -20 -20 -20 -20 -20 -20 -20 -20 -20 -20
-20 -20 -20 -20 -20 -20 -20 9 9 18 25 28 33 35 33 29 26 26 -13 -4 -13 -11 -17 3 -20 -20 -20 -18 4 -0 -10 7 -0 8 -3 -2 -17 -20 -20 -20 -20 -20 -20 -20 -20 -20 -20 -20 -20 -20 -20 -20 -20 -20
-20 -20 -20 -20 -10 -20 -19 -19 2 10 27 31 34 28 27 26 32 31 18 6 -8 -14 -20 -20 -5 -10 12 14 24 9 27 23 6 10 3 8 -8 -17 -20 -20 -20 -20 -20 -20 -20 -20 -20 -20 -20 -20 -20 -20 -20 -20
-20 -20 -20 -20 -8 -5 -5 -19 -18 -13 3 27 28 19 20 27 26 18 7 -8 -13 -10 -8 7 23 26 26 13 28 17 13 14 7 19 31 13 -13 -20 -20 -20 -20 -20 -20 -20 -20 -20 -20 -20 -20 -20 -20 -20 -20 -20
-20 -20 -8 -18 -19 -15 -19 -20 -20 -20 -20 0 24 21 24 23 26 30 28 23 26 34 32 28 28 25 15 22 9 12 15 13 31 20 4 -13 -20 -16 -20 -20 -20 -20 -20 -20 -20 -20 -20 -20 -20 -20 -20 -20 -20 -20
-20 -1 -13 2 0 -20 -20 -13 -10 -18 -20 -20 5 16 15 28 25 28 35 32 27 23 19 13 8 12 15 12 3 15 17 18 6 1 0 -4 -19 -20 -20 -20 -20 -20 -20 -20 -20 -20 -20 -20 -20 -20 -20 -20 -20 -20
-7 -2 -13 -3 -10 -20 -20 -20 -18 -7 -20 -20 -2 -9 -18 -1 -10 2 9 4 17 20 13 9 1 3 4 5 9 12 1 4 1 -7 -20 -20 -20 -20 -20 -20 -20 -20 -20 -20 -20 -20 -20 -20 -20 -20 -20 -20 -20 -18
2 -9 2 8 -7 -20 -16 -20 -20 -20 -20 -20 -20 -20 -12 -20 -20 -20 -6 -20 -20 -16 -12 3 -8 -13 -15 -13 -1 -7 -19 -20 -20 -20 -20 -20 -20 -20 -20 -20 -20 -20 -20 -20 -20 -20 -20 -20 -20 -20 -20 -3 -8 -20
-6 -14 21 6 -2 -15 -20 -19 -20 -20 -20 -20 -20 -13 -13 -17 -16 -2 0 -11 -20 -11 -20 -20 -20 -20 -20 -17 -16 -20 -20 -20 -20 -20 -20 -20 -20 -20 -20 -20 -20 -20 -20 -20 -20 -20 -20 -1 9 20 1 -3 -12 -17
-20 -0 27 17 -6 19 28 -15 -20 -20 -20 -20 -20 -16 -20 -20 -20 -10 -17 -20 -20 -20 -20 -20 -20 -20 -20 -20 -20 -20 -20 -20 -20 -20 -20 -20 -20 -20 -20 -20 -20 -20 -20 -20 -20 -0 12 26 26 -0 -10 -20 -20 -20
-6 16 40 26 -7 -20 -20 -20 -20 -20 -4 -20 -17 1 -20 -20 -20 -20 -20 -2 -17 -20 -20 -20 -20 -20 -20 -20 -20 -20 -20 -20 -20 -20 -20 -20 -20 -20 -20 -20 -12 -10 20 14 10 2 -4 9 6 -1 -14 -15 -7 -15
16 21 30 26 8 -7 -2 -20 -15 -12 -8 -12 -3 -18 -20 -18 -20 -20 -20 -20 -20 -20 -20 -20 -20 -20 -20 -20 -20 -20 -20 -20 -20 -20 -20 -20 -20 -20 -20 -1 -9 11 9 -3 23 18 -20 -20 -19 -18 -20 -15 5 0
25 18 21 21 18 -7 -20 -10 -20 -20 -7 2 1 -1 -2 -8 -20 -6 -20 -20 -20 -20 -20 -20 -20 -20 -20 -20 -20 -20 -20 -20 -20 -20 -20 -20 -20 -20 -20 -20 -20 19 19 6 -0 15 -20 -20 -10 -13 -5 -1 2 12
28 18 21 6 -12 -11 -18 -5 -5 -20 -20 -16 -20 -4 -8 -20 -20 -20 -20 -7 -20 -20 -20 -20 -20 -20 -20 -20 -20 -20 -20 -20 -19 -19 -20 -11 4 -4 -1 -19 -20 -6 -19 -2 11 17 6 -4 -20 -20 -20 -8 9 8
18 14 4 -8 -13 -20 -9 -18 -20 -20 -20 -13 -2 -17 -20 -20 -20 -20 -18 2 -20 -20 -20 -20 -20 -20 -20 -20 -20 -19 -20 -20 -0 -5 -20 -13 -14 -0 5 9 10 -2 -20 -0 11 25 22 10 5 -3 -1 7 9 12
10 -16 -20 -20 -20 -17 -9 -20 -20 -20 -20 -20 -20 -20 -20 -20 -20 -7 -20 -20 -20 -20 -20 -20 -20 -20 -20 -20 -20 -19 -4 -15 -2 2 -7 -10 5 -4 0 3 -0 4 1 5 5 7 14 14 9 3 6 4 8 8
-4 -9 -20 -20 -20 -20 -20 -20 -20 -20 -20 -20 -20 -20 -20 -20 -18 -19 -20 -20 -20 -20 -20 -20 -20 -20 -20 -20 -16 3 -18 -8 -20 -20 -20 4 2 -20 -20 -1 -2 -14 -1 -6 0 0 8 8 -1 5 12 9 2 -2
3 -11 -20 -20 -20 -20 -20 -20 -20 -20 -20 -20 -2 2 -7 -20 -15 -6 -17 -6 -7 -17 -20 -18 -4 -2 -3 -5 2 9 -16 -5 -17 -20 -20 -5 -6 -20 -1 4 2 1 0 -2 -20 -3 0 -12 -20 -5 3 4 2 2
-2 -20 -19 -20 -20 -14 1 -6 -2 -20 -20 -5 -20 -20 -20 -4 0 -3 0 -7 -13 -5 1 2 1 -2 -2 -3 -3 -10 7 0 -6 0 -3 -20 1 3 5 2 -3 1 2 0 0 -9 0 -20 -9 14 6 -11 2 -5
-20 -20 -8 -13 -15 -3 -20 -20 -20 -20 -20 -14 -20 -15 -20 -18 -1 -8 -4 2 3 -1 -3 -4 -6 -3 -5 -4 -1 -2 -3 -17 1 7 -18 5 4 5 -4 1 -13 3 0 -1 -1 -0 5 -6 9 8 -3 -7 -17 -20
-20 -20 -20 -17 -6 -20 -20 -20 -20 -14 5 -15 -9 -20 -5 -2 -19 -2 -6 -2 1 -3 -19 -5 -6 -3 -4 -3 1 -19 2 4 6 5 2 7 2 2 2 -0 2 1 -20 -20 -8 6 4 -5 3 -0 5 -19 -20 -20
-6 -3 -20 -20 -20 -8 -7 -20 -20 -20 -5 -20 -8 -18 -20 -7 -20 -5 -2 -1 -2 -4 -6 -5 -5 -4 2 -5 -20 -10 -20 -17 -16 6 1 3 -20 -18 -9 1 3 -20 -20 -20 -17 6 -11 -2 -2 2 -1 -8 -20 -20

GFSWCAN_prec_radar_033.txt.gz
Reflectivity
13 -17 -20 -14 -20 -20 -1 7 9 11 6 -20 -20 -20 -20 -20 -20 -20 -20 -20 -20 -20 -20 -20 -20 -20 -20 -20 -20 -20 -20 -20 -20 -20 -20 -20 -20 -20 -20 -20 -20 -20 -20 -20 -20 -20 -20 -20 -20 -20 -20 -20 -20 -20
10 -14 -20 -20 -20 -20 -14 -18 -3 7 -4 -20 -20 -20 -20 -20 -20 -20 -20 -20 -20 -20 -20 -20 -20 -20 -20 -20 -20 -20 -20 -20 -20 -20 -16 -20 -17 -13 -20 -20 -20 -20 -20 -20 -20 -20 -20 -20 -20 -20 -20 -20 -20 -20
27 -20 -19 -20 -20 -20 -20 -20 -20 -20 -20 -20 -20 -20 -20 -20 -20 -20 -20 -20 -20 -20 -20 -20 -20 -20 -20 -20 -20 -20 -20 -20 -20 -20 -20 -20 -20 -20 -20 -20 -20 -20 -20 -20 -20 -20 -20 -20 -20 -20 -20 -20 -20 -20
20 7 -14 -8 -3 -19 -20 -20 -20 -20 -20 -20 -20 -20 -20 -20 -20 -20 -20 -20 -20 -20 10 -20 -20 -20 -20 -20 -20 -20 -20 -20 -20 -20 -14 6 -20 -20 -20 -20 -20 -18 -20 -19 -19 -20 -20 -20 -20 -20 -20 -20 -20 -20
29 20 6 -6 -1 -20 -20 -20 -20 -20 -20 -20 -20 -20 -20 -20 -20 -20 -20 -20 -20 -20 -19 -20 -20 -20 -20 -20 -20 -20 -20 -20 -20 -20 -2 -19 -20 -20 -20 -20 -18 -3 -4 -16 -20 -20 -20 -20 -20 -20 -20 -20 -20 -20
24 25 15 -2 2 -20 -20 -20 -20 -20 -20 -20 -20 -20 -20 -20 -20 -20 -20 -20 -20 -20 -20 -20 -20 -20 -20 -20 -20 -20 -20 -20 -20 -20 -20 -20 -20 -20 -20 -20 -14 -14 -20 -20 -20 -20 -20 -20 -20 -20 -20 -20 -20 -20
32 33 27 23 -5 -5 -20 -20 -20 -20 -20 -20 -20 -20 -20 -20 -20 -20 -20 -20 1 -20 -20 2 -19 -20 -20 -20 -20 -20 -20 -20 -20 -20 -4 -20 -20 -20 -11 -20 -14 -20 -20 -20 -20 -20 -20 -20 -20 -20 -20 -20 -20 -20
35 33 32 25 21 4 -20 -20 -20 -20 -20 -17 -20 -20 -19 -9 -1 -20 -20 -20 -20 -20 -20 -20 -13 -20 -20 -20 -13 -20 -20 -20 -20 -20 -20 -20 -20 -17 -12 -20 -20 -20 -20 -20 -20 -20 -20 -20 -20 -20 -20 -20 -20 -20
14 22 29 28 17 16 7 -20 -5 -20 -13 9 9 -20 -20 -20 -20 -20 -20 -20 -20 -20 -18 -7 -20 -20 -20 -20 -20 -20 -20 -20 -20 -9 -20 -20 -20 -20 -20 -20 -20 -20 -20 -20 -20 -20 -8 -18 -20 -20 -20 -20 -20 -20
-8 3 15 28 19 -3 -13 -12 -20 -9 -11 -7 -16 -20 -20 -20 -8 -20 -20 -20 -20 -17 -19 -20 -20 -20 -20 -20 -20 -20 -19 -20 -20 -20 -20 -20 -20 -20 -20 -20 -20 -20 -20 -8 -15 4 -7 -20 -20 -20 -20 -20 -20 -20
-1 -14 -2 -8 6 10 18 16 17 15 12 5 -20 -11 -0 -13 -20 -20 -10 -15 -7 -20 -20 -20 -20 -20 -20 -20 -20 -20 -20 -20 -20 -20 -20 -20 -20 -20 -20 -20 -20 -20 -18 7 6 -10 -20 -20 -20 -20 -20 -20 -20 -20
-20 -3 -8 -18 -14 -9 2 8 28 27 20 18 -1 -20 14 -9 -15 -3 -8 -19 -20 -20 -20 -20 -20 -20 -20 -20 -20 -20 -20 -2 -20 -20 -9 -20 -20 -20 -20 -20 -20 -20 1 -4 -20 -20 -20 -20 -20 -20 -20 -20 -20 -20
-20 -20 -19 -9 -20 -20 -9 -6 9 26 32 32 33 27 27 31 29 15 -0 8 -5 -6 -12 -20 -20 -20 -20 -6 14 12 -3 -11 -14 -16 -20 -14 -5 -14 -20 -20 -20 -17 -20 -20 -20 -20 -20 -20 -20 -20 -20 -20 -20 -20
-20 -20 -20 -20 -20 -20 1 6 10 16 20 31 32 26 22 22 17 -3 -12 6 3 -5 -9 -12 -20 -19 -10 -6 11 16 23 14 12 4 -19 16 16 13 -20 -20 -20 -20 -20 -20 -20 -20 -20 -20 -20 -20 -20 -20 -20 -20
-20 -20 4 -20 -20 -20 -20 -18 -18 -15 -20 13 27 17 15 9 13 9 16 18 21 6 22 23 17 20 3 19 16 16 14 11 7 17 22 30 -9 -20 -20 -20 -20 -20 -20 -20 -20 -20 -20 -20 -20 -20 -20 -20 -20 -20
-20 -20 -20 -2 -18 -20 -20 -20 -20 -20 -20 -20 -19 -17 2 -2 2 19 24 13 22 25 23 27 17 17 16 8 4 11 10 14 21 17 17 14 2 -3 -15 -20 -20 -20 -20 -20 -20 -20 -20 -20 -20 -20 -20 -20 -20 -20
-20 -7 -7 -16 -20 -20 -20 -20 -20 -20 -20 -20 -19 -11 11 -2 -8 5 12 11 12 17 -18 16 -2 3 3 9 12 13 18 9 10 16 5 -5 -12 -20 -20 -20 -20 -20 -20 -20 -20 -20 -20 -20 -20 -20 -20 -20 -20 -20
-9 -18 8 -8 -20 -18 -20 -20 -20 -20 -20 12 1 -20 -1 -20 -12 -20 -20 -20 -20 -20 -20 -20 -20 -20 -8 -9 15 -5 -3 3 4 4 7 4 -0 -4 -15 -20 -20 -20 -20 -20 -20 -20 -20 -20 -20 -20 -20 -20 -20 -17
10 -18 2 7 -14 -20 -20 -20 -20 -20 -20 -20 -20 -20 -20 -20 -20 -20 -20 -20 -20 -20 -20 -20 -20 -20 -20 -13 -4 -20 -20 -20 -19 -19 -20 -20 -20 -20 -20 -20 -20 -20 -20 -20 -20 -20 -20 -20 -20 -20 -20 -20 -20 -20
-10 -20 6 -1 3 -20 -20 -20 -20 -20 -20 -20 -20 -18 -20 -20 -0 -15 -20 -20 -20 -20 -20 -20 -20 -20 -20 -20 -20 -20 -20 -20 -20 -20 -20 -20 -20 -20 -20 -20 -20 -20 -20 -20 -20 -20 -20 -20 -20 -14 -20 0 -20 -20
-20 -14 -0 9 -15 -20 -20 -20 -20 -20 -20 -20 -20 -20 -17 7 -2 -8 -20 -20 -20 -20 -20 -20 -20 -20 -20 -20 -20 -20 -20 -20 -20 -20 -20 -20 -20 -20 -20 -20 -20 -20 -20 -20 -20 -20 -3 -0 -20 16 -18 -20 -20 -20
-20 -15 -14 14 25 -20 -20 -20 -20 -20 -20 -20 -20 -20 4 -20 -19 -14 -20 -20 -20 -20 -20 -20 -20 -20 -20 -20 -20 -20 -20 -20 -20 -20 -20 -20 -20 -20 -20 -20 -20 -20 -20 -20 -12 2 -10 -20 14 -19 -19 -20 -20 -20
8 -19 -17 24 17 -13 -20 -20 -20 -20 -20 -17 -20 -20 -20 -20 -20 -20 -20 -20 -20 -20 -20 -20 -20 -20 -20 -20 -20 -20 -20 -20 -20 -20 -20 -20 -20 -20 -20 -20 -20 -20 -20 -20 -20 -20 -20 -20 -20 -20 -20 -20 -20 -20
23 -7 -20 14 18 6 -20 -13 -20 -20 -20 -19 -18 -16 -6 -20 -20 -20 -20 -20 -20 -20 -20 -20 -20 -20 -20 -20 -20 -20 -20 -20 -20 -20 -20 -20 -20 -20 -20 -20 -20 -20 -20 -20 -17 -11 -20 -17 -2 4 8 13 -20 -15
15 21 -15 1 3 -20 -20 -20 -20 -20 -20 -20 -20 -20 -20 -20 -20 -20 -20 -20 -20 -20 -20 -20 -20 -20 -20 -20 -20 -20 -20 -20 -20 -20 -20 -20 -20 -20 -20 -20 -20 -9 -20 -20 -20 -20 -20 -10 11 27 21 1 -20 -20
-14 -6 -1 -18 -14 -20 -20 -20 -20 -20 -20 -20 -20 -20 -20 -20 -20 -20 -20 -20 -19 -20 -20 -20 -20 -20 -20 -20 -20 -20 -19 -20 -20 -20 -20 -20 -2 -20 -20 -20 -20 -20 -20 -0 -7 -19 -20 -9 -2 10 -3 -20 -13 -20
-12 11 -11 -20 -20 -20 -20 -20 -20 -20 -20 -20 -20 -20 -20 -20 -20 -20 -19 -18 -19 -20 -20 -20 -20 -20 -20 -20 -20 -10 -20 -20 -20 -16 -20 5 -19 -20 -20 -14 -20 -20 -20 -19 -20 -19 -9 -16 2 -20 -18 -20 -7 -3
-19 -20 -20 -7 -19 -20 -20 -20 -4 -9 -16 -20 -20 -20 -20 -20 -20 -19 -19 -20 -20 -20 -20 -20 -20 -20 -18 -1 -11 -14 -20 -20 -20 -20 -20 -15 -20 -20 -20 -20 -4 -20 -20 -20 -20 -20 -19 -15 -5 -18 -16 -2 4 -6
0 -13 -11 -15 -20 -20 -20 -20 -20 -20 -20 -20 -20 -20 -20 -20 -18 -8 -20 -20 -20 -20 -20 -19 -20 -20 -20 -20 -20 -20 -20 -20 -20 -20 -20 -20 -20 -20 -20 -20 -20 -20 -20 -20 -20 -20 -20 -8 -0 -18 8 9 2 2
6 5 -1 -7 -7 -7 -18 -20 -17 -20 -20 -20 -20 -20 -20 -7 -20 -20 -20 -20 -20 -20 -19 -20 -20 -20 -20 -20 -20 -20 -20 -20 -20 -20 -20 -20 -14 -20 -20 -20 -20 -20 -20 -20 -20 -20 -20 -20 -17 11 0 -15 9 3
-20 -20 -15 -19 -20 -20 -20 -20 -5 -4 -20 -20 -20 -20 -20 -20 -20 -20 -20 -20 -20 -20 -20 -20 -20 -20 -20 -20 -20 -20 -20 -20 -20 -20 -20 -20 -20 -20 -20 -20 -20 -20 -10 -20 -20 -20 -20 -20 -6 6 -13 -12 4 1
-20 -20 -20 -20 -15 -20 -20 -20 -20 -20 -20 -19 -20 -20 -20 -20 -20 -20 -20 -20 -20 -20 -20 -20 -20 -20 -20 -20 -20 -20 -19 -20 -20 -20 -20 -20 -20 -20 -20 -20 -20 -20 -20 -20 -20 -20 -20 -20 -19 -12 2 -3 -2 -3
-7 -20 -20 -20 -20 -20 -20 -20 -20 -20 -20 -20 -20 -20 -20 -20 -20 -20 -20 -20 -20 -20 -20 -20 -20 -20 -20 -20 -20 -20 -20 -20 -20 -20 -20 -20 -20 -20 -20 -20 -20 -20 -20 -20 -20 -20 -20 -20 -20 -20 -18 -3 1 2